| time (UTC) | temp C | wind direction | speed KPH | gust KPH | rain 1hr cm | rain 24hr cm | rain mn cm | humidity % | barometer mb |
| 20260502190503 | 20 | 2 | 8.0 | 16.1 | 0.00 | 0.00 | 0.00 | 39 | 1011.0 |
| 20260502190403 | 20 | 4 | 11.3 | 16.1 | 0.00 | 0.00 | 0.00 | 41 | 1011.0 |
| 20260502190303 | 20 | 359 | 9.7 | 16.1 | 0.00 | 0.00 | 0.00 | 41 | 1011.0 |
| 20260502190103 | 20 | 1 | 8.0 | 12.9 | 0.00 | 0.00 | 0.00 | 41 | 1011.0 |
| 20260502190004 | 19 | 358 | 8.0 | 14.5 | 0.00 | 0.00 | 0.00 | 40 | 1011.0 |
| 20260502185903 | 19 | 356 | 6.4 | 14.5 | 0.00 | 0.00 | 0.00 | 41 | 1011.0 |
| 20260502185803 | 19 | 356 | 8.0 | 14.5 | 0.00 | 0.00 | 0.00 | 40 | 1011.0 |
| 20260502185703 | 19 | 355 | 8.0 | 14.5 | 0.00 | 0.00 | 0.00 | 40 | 1011.0 |
| 20260502185603 | 19 | 1 | 6.4 | 14.5 | 0.00 | 0.00 | 0.00 | 41 | 1011.0 |
| 20260502185503 | 19 | 3 | 8.0 | 14.5 | 0.00 | 0.00 | 0.00 | 41 | 1009.9 |
| 20260502185403 | 19 | 2 | 6.4 | 14.5 | 0.00 | 0.00 | 0.00 | 41 | 1009.9 |
| 20260502185305 | 20 | 9 | 9.7 | 14.5 | 0.00 | 0.00 | 0.00 | 41 | 1009.9 |
| 20260502185203 | 20 | 10 | 11.3 | 14.5 | 0.00 | 0.00 | 0.00 | 42 | 1009.9 |
| 20260502185103 | 20 | 11 | 11.3 | 14.5 | 0.00 | 0.00 | 0.00 | 42 | 1009.9 |
| 20260502185003 | 20 | 14 | 9.7 | 12.9 | 0.00 | 0.00 | 0.00 | 42 | 1009.9 |
| 20260502184903 | 19 | 19 | 6.4 | 12.9 | 0.00 | 0.00 | 0.00 | 42 | 1009.9 |
| 20260502184803 | 19 | 19 | 6.4 | 12.9 | 0.00 | 0.00 | 0.00 | 42 | 1009.9 |
| 20260502184703 | 19 | 19 | 4.8 | 12.9 | 0.00 | 0.00 | 0.00 | 42 | 1009.9 |
| 20260502184503 | 19 | 16 | 3.2 | 12.9 | 0.00 | 0.00 | 0.00 | 42 | 1009.9 |
| 20260502184403 | 19 | 17 | 8.0 | 12.9 | 0.00 | 0.00 | 0.00 | 42 | 1009.9 |
| 20260502184303 | 19 | 19 | 9.7 | 12.9 | 0.00 | 0.00 | 0.00 | 41 | 1009.9 |
| 20260502184203 | 19 | 22 | 8.0 | 12.9 | 0.00 | 0.00 | 0.00 | 41 | 1009.9 |
| 20260502184104 | 19 | 25 | 8.0 | 12.9 | 0.00 | 0.00 | 0.00 | 42 | 1009.9 |
| 20260502184004 | 19 | 29 | 8.0 | 12.9 | 0.00 | 0.00 | 0.00 | 42 | 1009.9 |
| 20260502183804 | 19 | 35 | 8.0 | 12.9 | 0.00 | 0.00 | 0.00 | 42 | 1009.9 |
| 20260502183703 | 19 | 36 | 9.7 | 12.9 | 0.00 | 0.00 | 0.00 | 42 | 1009.9 |
| 20260502183603 | 19 | 39 | 8.0 | 12.9 | 0.00 | 0.00 | 0.00 | 42 | 1009.9 |
| 20260502183503 | 19 | 37 | 4.8 | 12.9 | 0.00 | 0.00 | 0.00 | 42 | 1009.9 |
| 20260502183403 | 19 | 34 | 4.8 | 12.9 | 0.00 | 0.00 | 0.00 | 41 | 1009.9 |
| 20260502183303 | 18 | 28 | 6.4 | 12.9 | 0.00 | 0.00 | 0.00 | 42 | 1009.9 |
| 20260502183203 | 18 | 22 | 4.8 | 12.9 | 0.00 | 0.00 | 0.00 | 42 | 1009.9 |
| 20260502183003 | 18 | 11 | 4.8 | 12.9 | 0.00 | 0.00 | 0.00 | 41 | 1009.9 |
| 20260502182903 | 18 | 4 | 8.0 | 12.9 | 0.00 | 0.00 | 0.00 | 41 | 1009.9 |
| 20260502182803 | 18 | 357 | 8.0 | 12.9 | 0.00 | 0.00 | 0.00 | 42 | 1009.9 |
| 20260502182703 | 18 | 357 | 8.0 | 12.9 | 0.00 | 0.00 | 0.00 | 42 | 1009.9 |
| 20260502182403 | 19 | 348 | 9.7 | 12.9 | 0.00 | 0.00 | 0.00 | 42 | 1009.9 |
| 20260502182203 | 19 | 346 | 9.7 | 12.9 | 0.00 | 0.00 | 0.00 | 41 | 1009.9 |
| 20260502182103 | 19 | 350 | 6.4 | 12.9 | 0.00 | 0.00 | 0.00 | 42 | 1009.9 |
| 20260502181903 | 19 | 6 | 9.7 | 17.7 | 0.00 | 0.00 | 0.00 | 42 | 1009.9 |
| 20260502181803 | 19 | 10 | 6.4 | 17.7 | 0.00 | 0.00 | 0.00 | 42 | 1009.9 |
| 20260502181603 | 18 | 10 | 6.4 | 17.7 | 0.00 | 0.00 | 0.00 | 42 | 1009.9 |
| 20260502181403 | 18 | 12 | 8.0 | 17.7 | 0.00 | 0.00 | 0.00 | 42 | 1009.9 |
| 20260502181303 | 18 | 11 | 3.2 | 17.7 | 0.00 | 0.00 | 0.00 | 42 | 1009.9 |
| 20260502181103 | 18 | 10 | 12.9 | 17.7 | 0.00 | 0.00 | 0.00 | 42 | 1009.9 |
| 20260502181004 | 18 | 10 | 14.5 | 17.7 | 0.00 | 0.00 | 0.00 | 44 | 1009.9 |
| 20260502180903 | 18 | 10 | 8.0 | 14.5 | 0.00 | 0.00 | 0.00 | 44 | 1009.9 |
| 20260502180803 | 18 | 14 | 9.7 | 12.9 | 0.00 | 0.00 | 0.00 | 44 | 1009.9 |
| 20260502180703 | 18 | 17 | 9.7 | 22.5 | 0.00 | 0.00 | 0.00 | 45 | 1009.9 |
| 20260502180603 | 18 | 18 | 6.4 | 22.5 | 0.00 | 0.00 | 0.00 | 44 | 1009.9 |
| 20260502180503 | 18 | 17 | 4.8 | 22.5 | 0.00 | 0.00 | 0.00 | 44 | 1009.9 |
| 20260502180404 | 18 | 18 | 6.4 | 22.5 | 0.00 | 0.00 | 0.00 | 44 | 1009.9 |
| 20260502180303 | 18 | 18 | 8.0 | 22.5 | 0.00 | 0.00 | 0.00 | 44 | 1009.9 |
| 20260502180203 | 18 | 14 | 9.7 | 22.5 | 0.00 | 0.00 | 0.00 | 44 | 1009.9 |
| 20260502170503 | 17 | 276 | 11.3 | 24.1 | 0.00 | 0.00 | 0.00 | 48 | 1009.9 |
| 20260502170403 | 17 | 273 | 9.7 | 24.1 | 0.00 | 0.00 | 0.00 | 49 | 1009.9 |
| 20260502170303 | 17 | 270 | 9.7 | 25.7 | 0.00 | 0.00 | 0.00 | 49 | 1009.9 |
| 20260502170204 | 17 | 271 | 9.7 | 25.7 | 0.00 | 0.00 | 0.00 | 49 | 1009.9 |
| 20260502164303 | 16 | 279 | 17.7 | 19.3 | 0.00 | 0.00 | 0.00 | 49 | 1009.9 |
| 20260502164103 | 16 | 277 | 4.8 | 19.3 | 0.00 | 0.00 | 0.00 | 49 | 1009.9 |
| 20260502164003 | 16 | 274 | 6.4 | 19.3 | 0.00 | 0.00 | 0.00 | 51 | 1009.9 |
| 20260502163903 | 16 | 272 | 4.8 | 25.7 | 0.00 | 0.00 | 0.00 | 51 | 1009.9 |
| 20260502163703 | 16 | 270 | 9.7 | 25.7 | 0.00 | 0.00 | 0.00 | 51 | 1009.9 |
| 20260502163503 | 16 | 275 | 17.7 | 25.7 | 0.00 | 0.00 | 0.00 | 49 | 1009.9 |
| 20260502163403 | 16 | 285 | 8.0 | 25.7 | 0.00 | 0.00 | 0.00 | 51 | 1009.9 |
| 20260502163303 | 16 | 290 | 11.3 | 25.7 | 0.00 | 0.00 | 0.00 | 51 | 1009.9 |
| 20260502163203 | 16 | 287 | 9.7 | 25.7 | 0.00 | 0.00 | 0.00 | 49 | 1009.9 |
| 20260502163103 | 16 | 284 | 16.1 | 25.7 | 0.00 | 0.00 | 0.00 | 51 | 1009.9 |
| 20260502163004 | 16 | 286 | 19.3 | 25.7 | 0.00 | 0.00 | 0.00 | 51 | 1009.9 |
| 20260502162903 | 16 | 289 | 16.1 | 25.7 | 0.00 | 0.00 | 0.00 | 51 | 1009.9 |
| 20260502162803 | 16 | 296 | 12.9 | 25.7 | 0.00 | 0.00 | 0.00 | 51 | 1009.9 |
| 20260502162703 | 16 | 301 | 11.3 | 25.7 | 0.00 | 0.00 | 0.00 | 51 | 1009.9 |
| 20260502162603 | 16 | 298 | 9.7 | 25.7 | 0.00 | 0.00 | 0.00 | 51 | 1009.9 |
| 20260502162403 | 16 | 283 | 9.7 | 17.7 | 0.00 | 0.00 | 0.00 | 51 | 1009.9 |
| 20260502162304 | 16 | 280 | 11.3 | 17.7 | 0.00 | 0.00 | 0.00 | 51 | 1009.9 |
| 20260502162203 | 16 | 288 | 12.9 | 19.3 | 0.00 | 0.00 | 0.00 | 51 | 1009.9 |
| 20260502162103 | 16 | 291 | 4.8 | 19.3 | 0.00 | 0.00 | 0.00 | 51 | 1009.9 |
| 20260502162004 | 16 | 294 | 12.9 | 19.3 | 0.00 | 0.00 | 0.00 | 51 | 1009.9 |
| 20260502161903 | 15 | 298 | 16.1 | 19.3 | 0.00 | 0.00 | 0.00 | 51 | 1009.9 |
| 20260502161803 | 15 | 300 | 12.9 | 19.3 | 0.00 | 0.00 | 0.00 | 51 | 1009.9 |
| 20260502161703 | 15 | 302 | 12.9 | 19.3 | 0.00 | 0.00 | 0.00 | 51 | 1009.9 |
| 20260502161603 | 15 | 293 | 8.0 | 25.7 | 0.00 | 0.00 | 0.00 | 51 | 1009.9 |
| 20260502161503 | 15 | 297 | 6.4 | 25.7 | 0.00 | 0.00 | 0.00 | 51 | 1009.9 |
| 20260502161403 | 15 | 297 | 9.7 | 25.7 | 0.00 | 0.00 | 0.00 | 49 | 1009.9 |
| 20260502161303 | 15 | 298 | 14.5 | 25.7 | 0.00 | 0.00 | 0.00 | 51 | 1009.9 |
| 20260502161104 | 15 | 290 | 9.7 | 25.7 | 0.00 | 0.00 | 0.00 | 52 | 1009.9 |
| 20260502161004 | 15 | 287 | 14.5 | 25.7 | 0.00 | 0.00 | 0.00 | 51 | 1009.9 |
| 20260502160903 | 15 | 285 | 17.7 | 25.7 | 0.00 | 0.00 | 0.00 | 51 | 1009.9 |
| 20260502160803 | 15 | 274 | 16.1 | 27.4 | 0.00 | 0.00 | 0.00 | 52 | 1009.9 |
| 20260502160703 | 15 | 269 | 14.5 | 29.0 | 0.00 | 0.00 | 0.00 | 51 | 1009.9 |
| 20260502160603 | 15 | 271 | 8.0 | 29.0 | 0.00 | 0.00 | 0.00 | 51 | 1009.9 |
| 20260502160503 | 15 | 269 | 6.4 | 29.0 | 0.00 | 0.00 | 0.00 | 51 | 1009.9 |
| 20260502160403 | 15 | 269 | 9.7 | 29.0 | 0.00 | 0.00 | 0.00 | 51 | 1009.9 |
| 20260502160303 | 15 | 268 | 11.3 | 29.0 | 0.00 | 0.00 | 0.00 | 51 | 1009.9 |
| 20260502160204 | 15 | 268 | 19.3 | 29.0 | 0.00 | 0.00 | 0.00 | 51 | 1009.9 |
| 20260502152305 | 13 | 263 | 12.9 | 27.4 | 0.00 | 0.00 | 0.00 | 55 | 1009.9 |
| 20260502152203 | 13 | 260 | 19.3 | 27.4 | 0.00 | 0.00 | 0.00 | 55 | 1009.9 |
| 20260502152103 | 13 | 260 | 12.9 | 25.7 | 0.00 | 0.00 | 0.00 | 54 | 1009.9 |
| 20260502152004 | 13 | 261 | 12.9 | 25.7 | 0.00 | 0.00 | 0.00 | 55 | 1009.9 |
| 20260502151803 | 13 | 259 | 16.1 | 27.4 | 0.00 | 0.00 | 0.00 | 55 | 1009.9 |
| 20260502151703 | 13 | 258 | 17.7 | 27.4 | 0.00 | 0.00 | 0.00 | 56 | 1009.9 |
| 20260502151603 | 13 | 260 | 17.7 | 27.4 | 0.00 | 0.00 | 0.00 | 56 | 1009.9 |
| 20260502151403 | 13 | 258 | 19.3 | 27.4 | 0.00 | 0.00 | 0.00 | 56 | 1009.9 |
| 20260502151303 | 12 | 256 | 20.9 | 27.4 | 0.00 | 0.00 | 0.00 | 56 | 1009.9 |
| 20260502151103 | 12 | 259 | 9.7 | 27.4 | 0.00 | 0.00 | 0.00 | 58 | 1009.9 |
| 20260502151003 | 12 | 256 | 11.3 | 27.4 | 0.00 | 0.00 | 0.00 | 58 | 1009.9 |
| 20260502150803 | 12 | 260 | 11.3 | 27.4 | 0.00 | 0.00 | 0.00 | 59 | 1009.9 |
| 20260502150704 | 12 | 261 | 14.5 | 27.4 | 0.00 | 0.00 | 0.00 | 58 | 1009.9 |
| 20260502150604 | 12 | 262 | 16.1 | 27.4 | 0.00 | 0.00 | 0.00 | 58 | 1009.9 |
| 20260502150503 | 12 | 261 | 16.1 | 27.4 | 0.00 | 0.00 | 0.00 | 58 | 1009.9 |
| 20260502150303 | 12 | 260 | 16.1 | 27.4 | 0.00 | 0.00 | 0.00 | 59 | 1009.9 |
| 20260502150204 | 12 | 259 | 11.3 | 27.4 | 0.00 | 0.00 | 0.00 | 58 | 1009.9 |
| 20260502150104 | 12 | 255 | 14.5 | 27.4 | 0.00 | 0.00 | 0.00 | 58 | 1009.9 |
| 20260502140104 | 8 | 262 | 14.5 | 19.3 | 0.00 | 0.00 | 0.00 | 68 | 1008.8 |
| 20260502130703 | 5 | 0 | 0.0 | 0.0 | 0.00 | 0.00 | 0.00 | 70 | 1008.8 |
| 20260502130603 | 5 | 0 | 0.0 | 0.0 | 0.00 | 0.00 | 0.00 | 70 | 1008.8 |
| 20260502130403 | 5 | 0 | 0.0 | 0.0 | 0.00 | 0.00 | 0.00 | 69 | 1008.8 |
| 20260502130303 | 5 | 0 | 0.0 | 0.0 | 0.00 | 0.00 | 0.00 | 69 | 1008.8 |
| 20260502130204 | 5 | 0 | 0.0 | 0.0 | 0.00 | 0.00 | 0.00 | 70 | 1008.8 |
| 20260502123804 | 5 | 206 | 0.0 | 6.4 | 0.00 | 0.00 | 0.00 | 68 | 1008.8 |
| 20260502123703 | 5 | 206 | 0.0 | 6.4 | 0.00 | 0.00 | 0.00 | 68 | 1008.8 |
| 20260502123603 | 5 | 206 | 0.0 | 6.4 | 0.00 | 0.00 | 0.00 | 67 | 1008.8 |
| 20260502123503 | 5 | 206 | 0.0 | 6.4 | 0.00 | 0.00 | 0.00 | 67 | 1008.8 |
| 20260502123403 | 5 | 206 | 0.0 | 6.4 | 0.00 | 0.00 | 0.00 | 67 | 1008.8 |
| 20260502123303 | 5 | 206 | 1.6 | 6.4 | 0.00 | 0.00 | 0.00 | 67 | 1008.8 |
| 20260502123203 | 5 | 209 | 4.8 | 6.4 | 0.00 | 0.00 | 0.00 | 67 | 1008.8 |
| 20260502123003 | 5 | 229 | 0.0 | 6.4 | 0.00 | 0.00 | 0.00 | 66 | 1008.8 |
| 20260502122903 | 5 | 252 | 3.2 | 6.4 | 0.00 | 0.00 | 0.00 | 66 | 1008.8 |
| 20260502122803 | 5 | 291 | 0.0 | 9.7 | 0.00 | 0.00 | 0.00 | 66 | 1008.8 |
| 20260502122704 | 5 | 306 | 0.0 | 9.7 | 0.00 | 0.00 | 0.00 | 66 | 1008.8 |
| 20260502122603 | 5 | 306 | 0.0 | 9.7 | 0.00 | 0.00 | 0.00 | 66 | 1008.8 |
| 20260502122503 | 5 | 306 | 0.0 | 9.7 | 0.00 | 0.00 | 0.00 | 66 | 1008.8 |
| 20260502122403 | 5 | 312 | 0.0 | 9.7 | 0.00 | 0.00 | 0.00 | 66 | 1008.8 |
| 20260502122306 | 5 | 318 | 0.0 | 9.7 | 0.00 | 0.00 | 0.00 | 66 | 1008.8 |
| 20260502122203 | 5 | 325 | 0.0 | 9.7 | 0.00 | 0.00 | 0.00 | 66 | 1008.8 |
| 20260502121903 | 5 | 333 | 0.0 | 9.7 | 0.00 | 0.00 | 0.00 | 66 | 1008.8 |
| 20260502121703 | 5 | 340 | 0.0 | 9.7 | 0.00 | 0.00 | 0.00 | 67 | 1008.8 |
| 20260502121603 | 5 | 342 | 1.6 | 9.7 | 0.00 | 0.00 | 0.00 | 68 | 1008.8 |
| 20260502121503 | 4 | 342 | 1.6 | 9.7 | 0.00 | 0.00 | 0.00 | 67 | 1008.8 |
| 20260502121403 | 4 | 341 | 6.4 | 9.7 | 0.00 | 0.00 | 0.00 | 67 | 1008.8 |
| 20260502121304 | 4 | 342 | 6.4 | 9.7 | 0.00 | 0.00 | 0.00 | 67 | 1008.8 |
| 20260502121203 | 4 | 344 | 6.4 | 8.0 | 0.00 | 0.00 | 0.00 | 67 | 1008.8 |
| 20260502120903 | 4 | 354 | 1.6 | 8.0 | 0.00 | 0.00 | 0.00 | 67 | 1008.8 |
| 20260502120803 | 4 | 353 | 6.4 | 8.0 | 0.00 | 0.00 | 0.00 | 67 | 1008.8 |
| 20260502120603 | 4 | 0 | 0.0 | 0.0 | 0.00 | 0.00 | 0.00 | 67 | 1008.8 |
| 20260502120503 | 3 | 0 | 0.0 | 0.0 | 0.00 | 0.00 | 0.00 | 67 | 1008.8 |
| 20260502120403 | 3 | 0 | 0.0 | 0.0 | 0.00 | 0.00 | 0.00 | 67 | 1008.8 |
| 20260502120304 | 3 | 0 | 0.0 | 0.0 | 0.00 | 0.00 | 0.00 | 67 | 1008.8 |
| 20260502120203 | 3 | 0 | 0.0 | 0.0 | 0.00 | 0.00 | 0.00 | 67 | 1008.8 |
| 20260502115903 | 3 | 0 | 0.0 | 0.0 | 0.00 | 0.00 | 0.00 | 66 | 1008.8 |
| 20260502115803 | 3 | 0 | 0.0 | 0.0 | 0.00 | 0.00 | 0.00 | 66 | 1008.8 |
| 20260502115703 | 3 | 0 | 0.0 | 0.0 | 0.00 | 0.00 | 0.00 | 66 | 1008.8 |
| 20260502115604 | 4 | 0 | 0.0 | 0.0 | 0.00 | 0.00 | 0.00 | 66 | 1008.8 |
| 20260502115503 | 4 | 0 | 0.0 | 0.0 | 0.00 | 0.00 | 0.00 | 66 | 1007.7 |
| 20260502115403 | 4 | 0 | 0.0 | 0.0 | 0.00 | 0.00 | 0.00 | 66 | 1007.7 |
| 20260502115306 | 4 | 0 | 0.0 | 0.0 | 0.00 | 0.00 | 0.00 | 66 | 1007.7 |
| 20260502115203 | 4 | 0 | 0.0 | 0.0 | 0.00 | 0.00 | 0.00 | 66 | 1007.7 |
| 20260502114903 | 4 | 0 | 0.0 | 0.0 | 0.00 | 0.00 | 0.00 | 65 | 1007.7 |
| 20260502114803 | 4 | 0 | 0.0 | 0.0 | 0.00 | 0.00 | 0.00 | 66 | 1007.7 |
| 20260502114703 | 4 | 0 | 0.0 | 0.0 | 0.00 | 0.00 | 0.00 | 65 | 1007.7 |
| 20260502114604 | 4 | 0 | 0.0 | 0.0 | 0.00 | 0.00 | 0.00 | 65 | 1007.7 |
| 20260502114503 | 5 | 0 | 0.0 | 0.0 | 0.00 | 0.00 | 0.00 | 65 | 1007.7 |
| 20260502114303 | 5 | 90 | 0.0 | 6.4 | 0.00 | 0.00 | 0.00 | 65 | 1007.7 |
| 20260502114203 | 5 | 84 | 0.0 | 6.4 | 0.00 | 0.00 | 0.00 | 65 | 1007.7 |
| 20260502114103 | 5 | 85 | 0.0 | 6.4 | 0.00 | 0.00 | 0.00 | 65 | 1007.7 |
| 20260502114004 | 5 | 84 | 0.0 | 6.4 | 0.00 | 0.00 | 0.00 | 65 | 1007.7 |
| 20260502113903 | 5 | 83 | 0.0 | 6.4 | 0.00 | 0.00 | 0.00 | 63 | 1007.7 |
| 20260502113703 | 5 | 87 | 0.0 | 9.7 | 0.00 | 0.00 | 0.00 | 63 | 1007.7 |
| 20260502113604 | 5 | 85 | 0.0 | 9.7 | 0.00 | 0.00 | 0.00 | 63 | 1007.7 |
| 20260502113403 | 5 | 86 | 0.0 | 9.7 | 0.00 | 0.00 | 0.00 | 62 | 1007.7 |
| 20260502113303 | 5 | 87 | 1.6 | 9.7 | 0.00 | 0.00 | 0.00 | 62 | 1007.7 |
| 20260502113203 | 5 | 87 | 4.8 | 9.7 | 0.00 | 0.00 | 0.00 | 62 | 1007.7 |
| 20260502113104 | 5 | 88 | 0.0 | 9.7 | 0.00 | 0.00 | 0.00 | 62 | 1007.7 |
| 20260502113004 | 5 | 88 | 0.0 | 9.7 | 0.00 | 0.00 | 0.00 | 62 | 1007.7 |
| 20260502112803 | 5 | 88 | 8.0 | 9.7 | 0.00 | 0.00 | 0.00 | 62 | 1007.7 |
| 20260502112703 | 5 | 88 | 9.7 | 9.7 | 0.00 | 0.00 | 0.00 | 62 | 1007.7 |
| 20260502112603 | 5 | 89 | 9.7 | 9.7 | 0.00 | 0.00 | 0.00 | 62 | 1007.7 |
| 20260502112503 | 5 | 90 | 9.7 | 9.7 | 0.00 | 0.00 | 0.00 | 62 | 1007.7 |
| 20260502112404 | 5 | 90 | 8.0 | 9.7 | 0.00 | 0.00 | 0.00 | 62 | 1007.7 |
| 20260502112305 | 5 | 90 | 6.4 | 9.7 | 0.00 | 0.00 | 0.00 | 62 | 1007.7 |
| 20260502112203 | 5 | 90 | 6.4 | 8.0 | 0.00 | 0.00 | 0.00 | 62 | 1007.7 |
| 20260502112103 | 5 | 89 | 4.8 | 8.0 | 0.00 | 0.00 | 0.00 | 62 | 1007.7 |
| 20260502112003 | 5 | 90 | 3.2 | 8.0 | 0.00 | 0.00 | 0.00 | 62 | 1007.7 |
| 20260502111903 | 5 | 0 | 0.0 | 0.0 | 0.00 | 0.00 | 0.00 | 62 | 1007.7 |
| 20260502111803 | 5 | 0 | 0.0 | 0.0 | 0.00 | 0.00 | 0.00 | 62 | 1007.7 |
| 20260502111603 | 5 | 0 | 0.0 | 0.0 | 0.00 | 0.00 | 0.00 | 62 | 1007.7 |
| 20260502111403 | 5 | 0 | 0.0 | 0.0 | 0.00 | 0.00 | 0.00 | 62 | 1007.7 |
| 20260502111303 | 5 | 0 | 0.0 | 0.0 | 0.00 | 0.00 | 0.00 | 62 | 1007.7 |
| 20260502111203 | 5 | 0 | 0.0 | 0.0 | 0.00 | 0.00 | 0.00 | 62 | 1007.7 |
| 20260502111004 | 5 | 0 | 0.0 | 0.0 | 0.00 | 0.00 | 0.00 | 62 | 1007.7 |
| 20260502110903 | 5 | 68 | 0.0 | 6.4 | 0.00 | 0.00 | 0.00 | 61 | 1007.7 |
| 20260502110804 | 5 | 68 | 0.0 | 6.4 | 0.00 | 0.00 | 0.00 | 61 | 1007.7 |
| 20260502110703 | 5 | 68 | 0.0 | 6.4 | 0.00 | 0.00 | 0.00 | 61 | 1007.7 |
| 20260502110603 | 5 | 68 | 0.0 | 6.4 | 0.00 | 0.00 | 0.00 | 61 | 1007.7 |
| 20260502110503 | 5 | 68 | 0.0 | 6.4 | 0.00 | 0.00 | 0.00 | 61 | 1007.7 |
| 20260502110403 | 5 | 68 | 0.0 | 6.4 | 0.00 | 0.00 | 0.00 | 61 | 1007.7 |
| 20260502110303 | 5 | 68 | 0.0 | 6.4 | 0.00 | 0.00 | 0.00 | 61 | 1007.7 |
| 20260502110203 | 5 | 68 | 0.0 | 6.4 | 0.00 | 0.00 | 0.00 | 61 | 1007.7 |
| 20260502110103 | 5 | 68 | 0.0 | 6.4 | 0.00 | 0.00 | 0.00 | 61 | 1007.7 |
| 20260502110004 | 5 | 68 | 1.6 | 6.4 | 0.00 | 0.00 | 0.00 | 61 | 1007.7 |
| 20260502105903 | 5 | 0 | 0.0 | 0.0 | 0.00 | 0.00 | 0.00 | 61 | 1007.7 |
| 20260502105804 | 5 | 0 | 0.0 | 0.0 | 0.00 | 0.00 | 0.00 | 61 | 1007.7 |
| 20260502105703 | 5 | 0 | 0.0 | 0.0 | 0.00 | 0.00 | 0.00 | 61 | 1007.7 |
| 20260502105603 | 5 | 46 | 0.0 | 3.2 | 0.00 | 0.00 | 0.00 | 61 | 1007.7 |
| 20260502105503 | 6 | 46 | 0.0 | 3.2 | 0.00 | 0.00 | 0.00 | 61 | 1007.7 |
| 20260502105404 | 6 | 46 | 0.0 | 3.2 | 0.00 | 0.00 | 0.00 | 61 | 1007.7 |
| 20260502105305 | 6 | 46 | 0.0 | 3.2 | 0.00 | 0.00 | 0.00 | 61 | 1007.7 |
| 20260502105203 | 6 | 46 | 0.0 | 3.2 | 0.00 | 0.00 | 0.00 | 61 | 1007.7 |
| 20260502105103 | 6 | 46 | 0.0 | 3.2 | 0.00 | 0.00 | 0.00 | 61 | 1007.7 |
| 20260502105003 | 6 | 46 | 0.0 | 3.2 | 0.00 | 0.00 | 0.00 | 61 | 1007.7 |
| 20260502104903 | 6 | 46 | 0.0 | 3.2 | 0.00 | 0.00 | 0.00 | 61 | 1007.7 |
| 20260502104803 | 6 | 46 | 0.0 | 3.2 | 0.00 | 0.00 | 0.00 | 61 | 1007.7 |
| 20260502104603 | 5 | 40 | 0.0 | 3.2 | 0.00 | 0.00 | 0.00 | 61 | 1007.7 |
| 20260502104503 | 5 | 34 | 0.0 | 3.2 | 0.00 | 0.00 | 0.00 | 61 | 1007.7 |
| 20260502104403 | 5 | 34 | 0.0 | 3.2 | 0.00 | 0.00 | 0.00 | 62 | 1007.7 |
| 20260502104203 | 5 | 34 | 0.0 | 3.2 | 0.00 | 0.00 | 0.00 | 62 | 1007.7 |
| 20260502104103 | 5 | 34 | 0.0 | 3.2 | 0.00 | 0.00 | 0.00 | 61 | 1007.7 |
| 20260502104004 | 5 | 34 | 0.0 | 3.2 | 0.00 | 0.00 | 0.00 | 61 | 1008.8 |
| 20260502103903 | 5 | 23 | 0.0 | 3.2 | 0.00 | 0.00 | 0.00 | 61 | 1008.8 |
| 20260502103803 | 6 | 23 | 0.0 | 3.2 | 0.00 | 0.00 | 0.00 | 61 | 1008.8 |
| 20260502103703 | 6 | 22 | 0.0 | 3.2 | 0.00 | 0.00 | 0.00 | 61 | 1008.8 |
| 20260502103604 | 6 | 23 | 0.0 | 3.2 | 0.00 | 0.00 | 0.00 | 61 | 1008.8 |
| 20260502103504 | 6 | 19 | 0.0 | 3.2 | 0.00 | 0.00 | 0.00 | 61 | 1008.8 |
| 20260502103403 | 6 | 19 | 0.0 | 3.2 | 0.00 | 0.00 | 0.00 | 61 | 1008.8 |
| 20260502103303 | 6 | 19 | 0.0 | 3.2 | 0.00 | 0.00 | 0.00 | 61 | 1008.8 |
| 20260502103203 | 6 | 19 | 0.0 | 3.2 | 0.00 | 0.00 | 0.00 | 61 | 1008.8 |
| 20260502103103 | 6 | 19 | 0.0 | 3.2 | 0.00 | 0.00 | 0.00 | 61 | 1008.8 |
| 20260502103004 | 6 | 19 | 0.0 | 3.2 | 0.00 | 0.00 | 0.00 | 61 | 1008.8 |
| 20260502102903 | 5 | 19 | 0.0 | 3.2 | 0.00 | 0.00 | 0.00 | 61 | 1008.8 |
| 20260502102803 | 5 | 21 | 1.6 | 3.2 | 0.00 | 0.00 | 0.00 | 61 | 1008.8 |
| 20260502102603 | 5 | 21 | 1.6 | 3.2 | 0.00 | 0.00 | 0.00 | 61 | 1008.8 |
| 20260502102503 | 5 | 38 | 0.0 | 3.2 | 0.00 | 0.00 | 0.00 | 61 | 1008.8 |
| 20260502102404 | 5 | 34 | 0.0 | 1.6 | 0.00 | 0.00 | 0.00 | 61 | 1008.8 |
| 20260502102306 | 5 | 34 | 0.0 | 1.6 | 0.00 | 0.00 | 0.00 | 61 | 1008.8 |
| 20260502102203 | 5 | 34 | 0.0 | 1.6 | 0.00 | 0.00 | 0.00 | 61 | 1008.8 |
| 20260502102103 | 5 | 34 | 0.0 | 1.6 | 0.00 | 0.00 | 0.00 | 61 | 1008.8 |
| 20260502101903 | 5 | 35 | 0.0 | 4.8 | 0.00 | 0.00 | 0.00 | 61 | 1008.8 |
| 20260502101703 | 5 | 34 | 0.0 | 4.8 | 0.00 | 0.00 | 0.00 | 61 | 1008.8 |
| 20260502101604 | 5 | 34 | 0.0 | 4.8 | 0.00 | 0.00 | 0.00 | 61 | 1008.8 |
| 20260502101503 | 5 | 34 | 0.0 | 4.8 | 0.00 | 0.00 | 0.00 | 61 | 1008.8 |
| 20260502101403 | 5 | 34 | 0.0 | 4.8 | 0.00 | 0.00 | 0.00 | 61 | 1008.8 |
| 20260502101303 | 5 | 34 | 0.0 | 4.8 | 0.00 | 0.00 | 0.00 | 61 | 1008.8 |
| 20260502100903 | 6 | 0 | 0.0 | 0.0 | 0.00 | 0.00 | 0.00 | 61 | 1008.8 |
| 20260502100803 | 6 | 270 | 0.0 | 1.6 | 0.00 | 0.00 | 0.00 | 61 | 1008.8 |
| 20260502100703 | 6 | 270 | 0.0 | 8.0 | 0.00 | 0.00 | 0.00 | 61 | 1008.8 |
| 20260502100604 | 6 | 265 | 0.0 | 8.0 | 0.00 | 0.00 | 0.00 | 60 | 1008.8 |
| 20260502100403 | 6 | 266 | 0.0 | 8.0 | 0.00 | 0.00 | 0.00 | 60 | 1008.8 |
| 20260502100204 | 6 | 266 | 0.0 | 8.0 | 0.00 | 0.00 | 0.00 | 60 | 1008.8 |
| 20260502091503 | 7 | 0 | 0.0 | 0.0 | 0.00 | 0.00 | 0.00 | 53 | 1007.7 |
| 20260502091303 | 7 | 0 | 0.0 | 0.0 | 0.00 | 0.00 | 0.00 | 53 | 1007.7 |
| 20260502091203 | 7 | 0 | 0.0 | 0.0 | 0.00 | 0.00 | 0.00 | 53 | 1007.7 |
| 20260502091103 | 7 | 0 | 0.0 | 0.0 | 0.00 | 0.00 | 0.00 | 53 | 1007.7 |
| 20260502091004 | 7 | 0 | 0.0 | 0.0 | 0.00 | 0.00 | 0.00 | 53 | 1008.8 |
| 20260502090903 | 7 | 0 | 0.0 | 0.0 | 0.00 | 0.00 | 0.00 | 52 | 1008.8 |
| 20260502090703 | 7 | 0 | 0.0 | 0.0 | 0.00 | 0.00 | 0.00 | 52 | 1008.8 |
| 20260502090603 | 7 | 0 | 0.0 | 0.0 | 0.00 | 0.00 | 0.00 | 52 | 1008.8 |
| 20260502090504 | 7 | 0 | 0.0 | 0.0 | 0.00 | 0.00 | 0.00 | 52 | 1008.8 |
| 20260502090403 | 7 | 0 | 0.0 | 0.0 | 0.00 | 0.00 | 0.00 | 52 | 1008.8 |
| 20260502090304 | 7 | 0 | 0.0 | 0.0 | 0.00 | 0.00 | 0.00 | 52 | 1008.8 |
| 20260502090203 | 7 | 0 | 0.0 | 0.0 | 0.00 | 0.00 | 0.00 | 52 | 1008.8 |
| 20260502071503 | 8 | 0 | 0.0 | 0.0 | 0.00 | 0.00 | 0.00 | 48 | 1009.9 |
| 20260502071404 | 9 | 0 | 0.0 | 0.0 | 0.00 | 0.00 | 0.00 | 48 | 1009.9 |
| 20260502071303 | 9 | 0 | 0.0 | 0.0 | 0.00 | 0.00 | 0.00 | 47 | 1009.9 |
| 20260502071203 | 9 | 0 | 0.0 | 0.0 | 0.00 | 0.00 | 0.00 | 47 | 1009.9 |
| 20260502071103 | 9 | 0 | 0.0 | 0.0 | 0.00 | 0.00 | 0.00 | 47 | 1009.9 |
| 20260502071004 | 9 | 0 | 0.0 | 0.0 | 0.00 | 0.00 | 0.00 | 47 | 1009.9 |
| 20260502070904 | 9 | 0 | 0.0 | 0.0 | 0.00 | 0.00 | 0.00 | 47 | 1009.9 |
| 20260502070804 | 9 | 0 | 0.0 | 0.0 | 0.00 | 0.00 | 0.00 | 47 | 1009.9 |
| 20260502070703 | 9 | 0 | 0.0 | 0.0 | 0.00 | 0.00 | 0.00 | 47 | 1009.9 |
| 20260502070603 | 9 | 0 | 0.0 | 0.0 | 0.00 | 0.00 | 0.00 | 47 | 1009.9 |
| 20260502070503 | 9 | 135 | 0.0 | 3.2 | 0.00 | 0.00 | 0.00 | 47 | 1009.9 |
| 20260502070403 | 9 | 143 | 0.0 | 6.4 | 0.00 | 0.00 | 0.00 | 47 | 1009.9 |
| 20260502070203 | 9 | 96 | 0.0 | 8.0 | 0.00 | 0.00 | 0.00 | 47 | 1009.9 |
| 20260502065903 | 9 | 89 | 0.0 | 8.0 | 0.00 | 0.00 | 0.00 | 47 | 1009.9 |
| 20260502065803 | 9 | 89 | 0.0 | 8.0 | 0.00 | 0.00 | 0.00 | 48 | 1009.9 |
| 20260502065703 | 9 | 89 | 0.0 | 8.0 | 0.00 | 0.00 | 0.00 | 48 | 1009.9 |
| 20260502065603 | 9 | 89 | 1.6 | 8.0 | 0.00 | 0.00 | 0.00 | 48 | 1009.9 |
| 20260502065504 | 9 | 84 | 4.8 | 8.0 | 0.00 | 0.00 | 0.00 | 47 | 1008.8 |
| 20260502065404 | 9 | 62 | 1.6 | 8.0 | 0.00 | 0.00 | 0.00 | 47 | 1008.8 |
| 20260502065306 | 9 | 77 | 0.0 | 3.2 | 0.00 | 0.00 | 0.00 | 47 | 1008.8 |
| 20260502065203 | 9 | 47 | 1.6 | 3.2 | 0.00 | 0.00 | 0.00 | 47 | 1008.8 |
| 20260502065104 | 9 | 90 | 0.0 | 3.2 | 0.00 | 0.00 | 0.00 | 47 | 1008.8 |
| 20260502065004 | 10 | 0 | 0.0 | 0.0 | 0.00 | 0.00 | 0.00 | 47 | 1008.8 |
| 20260502064904 | 10 | 0 | 0.0 | 0.0 | 0.00 | 0.00 | 0.00 | 47 | 1008.8 |
| 20260502064803 | 10 | 0 | 0.0 | 0.0 | 0.00 | 0.00 | 0.00 | 47 | 1008.8 |
| 20260502064703 | 10 | 0 | 0.0 | 0.0 | 0.00 | 0.00 | 0.00 | 47 | 1008.8 |
| 20260502064603 | 10 | 0 | 0.0 | 0.0 | 0.00 | 0.00 | 0.00 | 47 | 1008.8 |
| 20260502064504 | 10 | 0 | 0.0 | 0.0 | 0.00 | 0.00 | 0.00 | 47 | 1008.8 |
| 20260502064303 | 10 | 0 | 0.0 | 0.0 | 0.00 | 0.00 | 0.00 | 47 | 1008.8 |
| 20260502064203 | 10 | 0 | 0.0 | 0.0 | 0.00 | 0.00 | 0.00 | 47 | 1008.8 |
| 20260502064104 | 10 | 0 | 0.0 | 0.0 | 0.00 | 0.00 | 0.00 | 47 | 1008.8 |
| 20260502064004 | 10 | 0 | 0.0 | 0.0 | 0.00 | 0.00 | 0.00 | 47 | 1009.9 |
| 20260502063904 | 10 | 0 | 0.0 | 0.0 | 0.00 | 0.00 | 0.00 | 47 | 1009.9 |
| 20260502063804 | 10 | 0 | 0.0 | 0.0 | 0.00 | 0.00 | 0.00 | 47 | 1009.9 |
| 20260502063703 | 10 | 0 | 0.0 | 0.0 | 0.00 | 0.00 | 0.00 | 47 | 1009.9 |
| 20260502063603 | 9 | 0 | 0.0 | 0.0 | 0.00 | 0.00 | 0.00 | 47 | 1009.9 |
| 20260502063503 | 9 | 0 | 0.0 | 0.0 | 0.00 | 0.00 | 0.00 | 47 | 1009.9 |
| 20260502063403 | 9 | 0 | 0.0 | 0.0 | 0.00 | 0.00 | 0.00 | 47 | 1009.9 |
| 20260502063304 | 9 | 0 | 0.0 | 0.0 | 0.00 | 0.00 | 0.00 | 47 | 1009.9 |
| 20260502063203 | 9 | 0 | 0.0 | 0.0 | 0.00 | 0.00 | 0.00 | 47 | 1009.9 |
| 20260502063103 | 9 | 0 | 0.0 | 0.0 | 0.00 | 0.00 | 0.00 | 47 | 1009.9 |
| 20260502062903 | 9 | 0 | 0.0 | 0.0 | 0.00 | 0.00 | 0.00 | 47 | 1009.9 |
| 20260502062803 | 9 | 0 | 0.0 | 0.0 | 0.00 | 0.00 | 0.00 | 47 | 1009.9 |
| 20260502062703 | 9 | 0 | 0.0 | 0.0 | 0.00 | 0.00 | 0.00 | 47 | 1009.9 |
| 20260502062603 | 10 | 0 | 0.0 | 0.0 | 0.00 | 0.00 | 0.00 | 47 | 1009.9 |
| 20260502062503 | 10 | 0 | 0.0 | 0.0 | 0.00 | 0.00 | 0.00 | 47 | 1009.9 |
| 20260502062403 | 10 | 0 | 0.0 | 0.0 | 0.00 | 0.00 | 0.00 | 47 | 1009.9 |
| 20260502062306 | 10 | 0 | 0.0 | 0.0 | 0.00 | 0.00 | 0.00 | 47 | 1009.9 |
| 20260502062204 | 9 | 0 | 0.0 | 0.0 | 0.00 | 0.00 | 0.00 | 47 | 1009.9 |
| 20260502062103 | 9 | 0 | 0.0 | 0.0 | 0.00 | 0.00 | 0.00 | 47 | 1009.9 |
| 20260502062003 | 9 | 0 | 0.0 | 0.0 | 0.00 | 0.00 | 0.00 | 47 | 1009.9 |
| 20260502061803 | 9 | 203 | 0.0 | 1.6 | 0.00 | 0.00 | 0.00 | 47 | 1009.9 |
| 20260502061703 | 9 | 183 | 0.0 | 4.8 | 0.00 | 0.00 | 0.00 | 47 | 1009.9 |
| 20260502061604 | 9 | 181 | 0.0 | 4.8 | 0.00 | 0.00 | 0.00 | 47 | 1009.9 |
| 20260502061503 | 9 | 181 | 0.0 | 4.8 | 0.00 | 0.00 | 0.00 | 47 | 1009.9 |
| 20260502061403 | 9 | 181 | 0.0 | 4.8 | 0.00 | 0.00 | 0.00 | 47 | 1009.9 |
| 20260502061303 | 9 | 181 | 0.0 | 4.8 | 0.00 | 0.00 | 0.00 | 48 | 1009.9 |
| 20260502061204 | 9 | 181 | 0.0 | 4.8 | 0.00 | 0.00 | 0.00 | 48 | 1009.9 |
| 20260502061103 | 9 | 181 | 0.0 | 4.8 | 0.00 | 0.00 | 0.00 | 48 | 1009.9 |
| 20260502061004 | 9 | 181 | 0.0 | 4.8 | 0.00 | 0.00 | 0.00 | 48 | 1011.0 |
| 20260502060803 | 9 | 177 | 1.6 | 4.8 | 0.00 | 0.00 | 0.00 | 48 | 1011.0 |
| 20260502060604 | 9 | 0 | 0.0 | 0.0 | 0.00 | 0.00 | 0.00 | 48 | 1011.0 |
| 20260502060503 | 9 | 321 | 0.0 | 6.4 | 0.00 | 0.00 | 0.00 | 48 | 1011.0 |
| 20260502060403 | 9 | 318 | 0.0 | 6.4 | 0.00 | 0.00 | 0.00 | 48 | 1011.0 |
| 20260502060303 | 9 | 312 | 0.0 | 6.4 | 0.00 | 0.00 | 0.00 | 48 | 1011.0 |
| 20260502060204 | 9 | 313 | 0.0 | 6.4 | 0.00 | 0.00 | 0.00 | 48 | 1011.0 |
| 20260502060008 | 10 | 313 | 0.0 | 6.4 | 0.00 | 0.00 | 0.00 | 48 | 1011.0 |
| 20260502055903 | 10 | 313 | 0.0 | 6.4 | 0.00 | 0.00 | 0.00 | 48 | 1011.0 |
| 20260502055803 | 10 | 313 | 0.0 | 6.4 | 0.00 | 0.00 | 0.00 | 48 | 1011.0 |
| 20260502055703 | 10 | 313 | 0.0 | 6.4 | 0.00 | 0.00 | 0.00 | 47 | 1011.0 |
| 20260502055604 | 10 | 313 | 3.2 | 6.4 | 0.00 | 0.00 | 0.00 | 47 | 1011.0 |
| 20260502055504 | 10 | 310 | 4.8 | 6.4 | 0.00 | 0.00 | 0.00 | 47 | 1009.9 |
| 20260502055403 | 10 | 309 | 1.6 | 6.4 | 0.00 | 0.00 | 0.00 | 47 | 1009.9 |
| 20260502055203 | 10 | 314 | 3.2 | 6.4 | 0.00 | 0.00 | 0.00 | 47 | 1009.9 |
| 20260502055103 | 10 | 0 | 0.0 | 0.0 | 0.00 | 0.00 | 0.00 | 47 | 1009.9 |
| 20260502055003 | 10 | 0 | 0.0 | 0.0 | 0.00 | 0.00 | 0.00 | 47 | 1009.9 |
| 20260502054903 | 10 | 0 | 0.0 | 0.0 | 0.00 | 0.00 | 0.00 | 47 | 1009.9 |
| 20260502054804 | 10 | 0 | 0.0 | 0.0 | 0.00 | 0.00 | 0.00 | 47 | 1009.9 |
| 20260502054703 | 10 | 0 | 0.0 | 0.0 | 0.00 | 0.00 | 0.00 | 47 | 1009.9 |
| 20260502054603 | 10 | 0 | 0.0 | 0.0 | 0.00 | 0.00 | 0.00 | 47 | 1009.9 |
| 20260502054503 | 10 | 0 | 0.0 | 0.0 | 0.00 | 0.00 | 0.00 | 47 | 1009.9 |
| 20260502054403 | 10 | 0 | 0.0 | 0.0 | 0.00 | 0.00 | 0.00 | 47 | 1009.9 |
| 20260502054303 | 10 | 0 | 0.0 | 0.0 | 0.00 | 0.00 | 0.00 | 47 | 1009.9 |
| 20260502054203 | 10 | 0 | 0.0 | 0.0 | 0.00 | 0.00 | 0.00 | 47 | 1009.9 |
| 20260502054003 | 10 | 203 | 0.0 | 3.2 | 0.00 | 0.00 | 0.00 | 47 | 1011.0 |
| 20260502053903 | 10 | 203 | 0.0 | 3.2 | 0.00 | 0.00 | 0.00 | 47 | 1011.0 |
| 20260502053803 | 10 | 203 | 0.0 | 3.2 | 0.00 | 0.00 | 0.00 | 48 | 1011.0 |
| 20260502053503 | 10 | 203 | 0.0 | 3.2 | 0.00 | 0.00 | 0.00 | 47 | 1011.0 |
| 20260502053405 | 10 | 203 | 0.0 | 3.2 | 0.00 | 0.00 | 0.00 | 47 | 1011.0 |
| 20260502053303 | 10 | 203 | 0.0 | 3.2 | 0.00 | 0.00 | 0.00 | 47 | 1011.0 |
| 20260502053004 | 10 | 0 | 0.0 | 0.0 | 0.00 | 0.00 | 0.00 | 48 | 1011.0 |
| 20260502052903 | 10 | 0 | 0.0 | 0.0 | 0.00 | 0.00 | 0.00 | 48 | 1011.0 |
| 20260502052804 | 10 | 0 | 0.0 | 0.0 | 0.00 | 0.00 | 0.00 | 48 | 1011.0 |
| 20260502052703 | 10 | 0 | 0.0 | 0.0 | 0.00 | 0.00 | 0.00 | 48 | 1011.0 |
| 20260502052603 | 10 | 0 | 0.0 | 0.0 | 0.00 | 0.00 | 0.00 | 48 | 1011.0 |
| 20260502052503 | 10 | 0 | 0.0 | 0.0 | 0.00 | 0.00 | 0.00 | 48 | 1011.0 |
| 20260502052404 | 10 | 0 | 0.0 | 0.0 | 0.00 | 0.00 | 0.00 | 48 | 1011.0 |
| 20260502052306 | 10 | 184 | 0.0 | 6.4 | 0.00 | 0.00 | 0.00 | 48 | 1011.0 |
| 20260502052203 | 10 | 186 | 0.0 | 6.4 | 0.00 | 0.00 | 0.00 | 48 | 1011.0 |
| 20260502052103 | 10 | 186 | 0.0 | 6.4 | 0.00 | 0.00 | 0.00 | 48 | 1011.0 |
| 20260502052003 | 10 | 186 | 0.0 | 6.4 | 0.00 | 0.00 | 0.00 | 48 | 1011.0 |
| 20260502051903 | 10 | 186 | 0.0 | 6.4 | 0.00 | 0.00 | 0.00 | 48 | 1011.0 |
| 20260502051803 | 10 | 186 | 0.0 | 6.4 | 0.00 | 0.00 | 0.00 | 49 | 1011.0 |
| 20260502051603 | 10 | 185 | 0.0 | 6.4 | 0.00 | 0.00 | 0.00 | 49 | 1011.0 |
| 20260502051503 | 10 | 185 | 0.0 | 6.4 | 0.00 | 0.00 | 0.00 | 49 | 1011.0 |
| 20260502051403 | 10 | 185 | 4.8 | 6.4 | 0.00 | 0.00 | 0.00 | 49 | 1011.0 |
| 20260502051304 | 10 | 190 | 3.2 | 4.8 | 0.00 | 0.00 | 0.00 | 49 | 1011.0 |
| 20260502051203 | 10 | 181 | 0.0 | 4.8 | 0.00 | 0.00 | 0.00 | 49 | 1011.0 |
| 20260502051004 | 10 | 181 | 0.0 | 4.8 | 0.00 | 0.00 | 0.00 | 49 | 1011.0 |
| 20260502050803 | 10 | 159 | 0.0 | 4.8 | 0.00 | 0.00 | 0.00 | 49 | 1011.0 |
| 20260502050703 | 10 | 130 | 0.0 | 1.6 | 0.00 | 0.00 | 0.00 | 49 | 1011.0 |
| 20260502050503 | 10 | 130 | 0.0 | 1.6 | 0.00 | 0.00 | 0.00 | 49 | 1011.0 |
| 20260502050403 | 10 | 130 | 0.0 | 1.6 | 0.00 | 0.00 | 0.00 | 49 | 1011.0 |
| 20260502050303 | 10 | 130 | 0.0 | 1.6 | 0.00 | 0.00 | 0.00 | 49 | 1011.0 |
| 20260502050203 | 10 | 130 | 0.0 | 1.6 | 0.00 | 0.00 | 0.00 | 49 | 1011.0 |
| 20260502050004 | 10 | 130 | 0.0 | 1.6 | 0.00 | 0.00 | 0.00 | 49 | 1011.0 |
| 20260502045903 | 10 | 130 | 1.6 | 1.6 | 0.00 | 0.00 | 0.00 | 49 | 1011.0 |
| 20260502045803 | 10 | 0 | 0.0 | 0.0 | 0.00 | 0.00 | 0.00 | 51 | 1011.0 |
| 20260502045704 | 10 | 112 | 0.0 | 4.8 | 0.00 | 0.00 | 0.00 | 51 | 1011.0 |
| 20260502045603 | 10 | 136 | 0.0 | 8.0 | 0.00 | 0.00 | 0.00 | 51 | 1011.0 |
| 20260502045503 | 10 | 135 | 0.0 | 8.0 | 0.00 | 0.00 | 0.00 | 51 | 1011.0 |
| 20260502045403 | 10 | 135 | 0.0 | 8.0 | 0.00 | 0.00 | 0.00 | 51 | 1011.0 |
| 20260502045306 | 10 | 135 | 0.0 | 8.0 | 0.00 | 0.00 | 0.00 | 51 | 1011.0 |
| 20260502045103 | 10 | 135 | 0.0 | 9.7 | 0.00 | 0.00 | 0.00 | 51 | 1011.0 |
| 20260502045004 | 10 | 132 | 0.0 | 9.7 | 0.00 | 0.00 | 0.00 | 51 | 1011.0 |
| 20260502044904 | 10 | 126 | 0.0 | 9.7 | 0.00 | 0.00 | 0.00 | 52 | 1011.0 |
| 20260502044803 | 10 | 126 | 3.2 | 9.7 | 0.00 | 0.00 | 0.00 | 52 | 1011.0 |
| 20260502044703 | 10 | 128 | 6.4 | 9.7 | 0.00 | 0.00 | 0.00 | 52 | 1011.0 |
| 20260502044603 | 10 | 120 | 1.6 | 9.7 | 0.00 | 0.00 | 0.00 | 52 | 1011.0 |
| 20260502044504 | 10 | 113 | 0.0 | 9.7 | 0.00 | 0.00 | 0.00 | 52 | 1011.0 |
| 20260502044404 | 10 | 109 | 0.0 | 9.7 | 0.00 | 0.00 | 0.00 | 52 | 1011.0 |
| 20260502044304 | 10 | 104 | 3.2 | 9.7 | 0.00 | 0.00 | 0.00 | 51 | 1011.0 |
| 20260502044203 | 10 | 104 | 8.0 | 9.7 | 0.00 | 0.00 | 0.00 | 51 | 1011.0 |
| 20260502044103 | 10 | 95 | 1.6 | 9.7 | 0.00 | 0.00 | 0.00 | 51 | 1011.0 |
| 20260502044004 | 10 | 95 | 1.6 | 9.7 | 0.00 | 0.00 | 0.00 | 51 | 1011.0 |
| 20260502043903 | 10 | 94 | 0.0 | 9.7 | 0.00 | 0.00 | 0.00 | 51 | 1011.0 |
| 20260502043803 | 10 | 97 | 0.0 | 12.9 | 0.00 | 0.00 | 0.00 | 51 | 1011.0 |
| 20260502043604 | 10 | 99 | 0.0 | 12.9 | 0.00 | 0.00 | 0.00 | 51 | 1011.0 |
| 20260502043503 | 10 | 100 | 4.8 | 12.9 | 0.00 | 0.00 | 0.00 | 51 | 1011.0 |
| 20260502043403 | 10 | 102 | 4.8 | 12.9 | 0.00 | 0.00 | 0.00 | 51 | 1011.0 |
| 20260502043303 | 10 | 105 | 6.4 | 12.9 | 0.00 | 0.00 | 0.00 | 51 | 1011.0 |
| 20260502043204 | 10 | 106 | 6.4 | 12.9 | 0.00 | 0.00 | 0.00 | 51 | 1011.0 |
| 20260502042803 | 10 | 113 | 8.0 | 12.9 | 0.00 | 0.00 | 0.00 | 51 | 1011.0 |
| 20260502042703 | 10 | 114 | 8.0 | 9.7 | 0.00 | 0.00 | 0.00 | 51 | 1011.0 |
| 20260502042603 | 10 | 115 | 6.4 | 9.7 | 0.00 | 0.00 | 0.00 | 51 | 1011.0 |
| 20260502042504 | 10 | 115 | 9.7 | 9.7 | 0.00 | 0.00 | 0.00 | 52 | 1011.0 |
| 20260502042306 | 10 | 116 | 8.0 | 9.7 | 0.00 | 0.00 | 0.00 | 51 | 1011.0 |
| 20260502042104 | 10 | 117 | 6.4 | 11.3 | 0.00 | 0.00 | 0.00 | 52 | 1011.0 |
| 20260502041904 | 10 | 116 | 6.4 | 11.3 | 0.00 | 0.00 | 0.00 | 52 | 1011.0 |
| 20260502041803 | 10 | 115 | 8.0 | 11.3 | 0.00 | 0.00 | 0.00 | 52 | 1011.0 |
| 20260502041703 | 10 | 115 | 8.0 | 11.3 | 0.00 | 0.00 | 0.00 | 52 | 1011.0 |
| 20260502041603 | 10 | 116 | 8.0 | 11.3 | 0.00 | 0.00 | 0.00 | 52 | 1011.0 |
| 20260502041503 | 10 | 116 | 8.0 | 11.3 | 0.00 | 0.00 | 0.00 | 52 | 1011.0 |
| 20260502041403 | 10 | 115 | 9.7 | 12.9 | 0.00 | 0.00 | 0.00 | 52 | 1011.0 |
| 20260502041303 | 10 | 115 | 8.0 | 12.9 | 0.00 | 0.00 | 0.00 | 52 | 1011.0 |
| 20260502041104 | 10 | 113 | 8.0 | 12.9 | 0.00 | 0.00 | 0.00 | 52 | 1011.0 |
| 20260502040904 | 10 | 116 | 8.0 | 12.9 | 0.00 | 0.00 | 0.00 | 52 | 1012.1 |
| 20260502040804 | 10 | 115 | 8.0 | 12.9 | 0.00 | 0.00 | 0.00 | 52 | 1012.1 |
| 20260502040603 | 10 | 114 | 9.7 | 12.9 | 0.00 | 0.00 | 0.00 | 52 | 1012.1 |
| 20260502040503 | 10 | 114 | 9.7 | 12.9 | 0.00 | 0.00 | 0.00 | 52 | 1012.1 |
| 20260502040403 | 10 | 113 | 9.7 | 12.9 | 0.00 | 0.00 | 0.00 | 52 | 1012.1 |
| 20260502040303 | 10 | 113 | 9.7 | 12.9 | 0.00 | 0.00 | 0.00 | 53 | 1012.1 |
| 20260502040004 | 10 | 107 | 11.3 | 16.1 | 0.00 | 0.00 | 0.00 | 53 | 1012.1 |
| 20260502035903 | 10 | 104 | 11.3 | 16.1 | 0.00 | 0.00 | 0.00 | 53 | 1012.1 |
| 20260502035804 | 10 | 103 | 11.3 | 16.1 | 0.00 | 0.00 | 0.00 | 52 | 1012.1 |
| 20260502035704 | 10 | 101 | 11.3 | 16.1 | 0.00 | 0.00 | 0.00 | 52 | 1012.1 |
| 20260502035604 | 10 | 99 | 9.7 | 16.1 | 0.00 | 0.00 | 0.00 | 52 | 1012.1 |
| 20260502035403 | 10 | 98 | 9.7 | 16.1 | 0.00 | 0.00 | 0.00 | 52 | 1011.0 |
| 20260502035306 | 10 | 99 | 12.9 | 16.1 | 0.00 | 0.00 | 0.00 | 52 | 1011.0 |
| 20260502035203 | 10 | 100 | 9.7 | 12.9 | 0.00 | 0.00 | 0.00 | 52 | 1011.0 |
| 20260502035103 | 10 | 100 | 11.3 | 12.9 | 0.00 | 0.00 | 0.00 | 52 | 1011.0 |
| 20260502035004 | 10 | 99 | 9.7 | 14.5 | 0.00 | 0.00 | 0.00 | 52 | 1011.0 |
| 20260502034903 | 10 | 100 | 9.7 | 14.5 | 0.00 | 0.00 | 0.00 | 52 | 1011.0 |
| 20260502034803 | 10 | 101 | 9.7 | 14.5 | 0.00 | 0.00 | 0.00 | 52 | 1011.0 |
| 20260502034704 | 10 | 101 | 9.7 | 14.5 | 0.00 | 0.00 | 0.00 | 52 | 1011.0 |
| 20260502034604 | 10 | 101 | 9.7 | 14.5 | 0.00 | 0.00 | 0.00 | 52 | 1011.0 |
| 20260502034503 | 10 | 101 | 9.7 | 14.5 | 0.00 | 0.00 | 0.00 | 52 | 1011.0 |
| 20260502034303 | 10 | 98 | 11.3 | 14.5 | 0.00 | 0.00 | 0.00 | 52 | 1011.0 |
| 20260502034203 | 10 | 96 | 12.9 | 14.5 | 0.00 | 0.00 | 0.00 | 52 | 1011.0 |
| 20260502033804 | 10 | 98 | 11.3 | 14.5 | 0.00 | 0.00 | 0.00 | 52 | 1011.0 |
| 20260502033703 | 10 | 99 | 11.3 | 14.5 | 0.00 | 0.00 | 0.00 | 52 | 1011.0 |
| 20260502033403 | 10 | 98 | 12.9 | 14.5 | 0.00 | 0.00 | 0.00 | 52 | 1011.0 |
| 20260502033303 | 10 | 99 | 12.9 | 14.5 | 0.00 | 0.00 | 0.00 | 52 | 1011.0 |
| 20260502033203 | 10 | 101 | 12.9 | 14.5 | 0.00 | 0.00 | 0.00 | 52 | 1011.0 |
| 20260502033103 | 10 | 99 | 12.9 | 14.5 | 0.00 | 0.00 | 0.00 | 52 | 1011.0 |
| 20260502032703 | 11 | 98 | 12.9 | 14.5 | 0.00 | 0.00 | 0.00 | 51 | 1011.0 |
| 20260502032403 | 11 | 101 | 12.9 | 14.5 | 0.00 | 0.00 | 0.00 | 51 | 1011.0 |
| 20260502032305 | 11 | 102 | 11.3 | 14.5 | 0.00 | 0.00 | 0.00 | 51 | 1011.0 |
| 20260502032203 | 11 | 99 | 11.3 | 14.5 | 0.00 | 0.00 | 0.00 | 51 | 1011.0 |
| 20260502032103 | 11 | 99 | 12.9 | 14.5 | 0.00 | 0.00 | 0.00 | 51 | 1011.0 |
| 20260502032004 | 11 | 101 | 12.9 | 14.5 | 0.00 | 0.00 | 0.00 | 51 | 1011.0 |
| 20260502031903 | 11 | 101 | 12.9 | 14.5 | 0.00 | 0.00 | 0.00 | 51 | 1011.0 |
| 20260502031803 | 11 | 100 | 12.9 | 12.9 | 0.00 | 0.00 | 0.00 | 51 | 1011.0 |
| 20260502031703 | 11 | 99 | 12.9 | 12.9 | 0.00 | 0.00 | 0.00 | 51 | 1011.0 |
| 20260502031603 | 11 | 97 | 12.9 | 12.9 | 0.00 | 0.00 | 0.00 | 49 | 1011.0 |
| 20260502031403 | 11 | 98 | 12.9 | 14.5 | 0.00 | 0.00 | 0.00 | 49 | 1011.0 |
| 20260502031303 | 11 | 99 | 11.3 | 14.5 | 0.00 | 0.00 | 0.00 | 49 | 1011.0 |
| 20260502031203 | 11 | 100 | 11.3 | 14.5 | 0.00 | 0.00 | 0.00 | 49 | 1011.0 |
| 20260502031003 | 11 | 100 | 12.9 | 14.5 | 0.00 | 0.00 | 0.00 | 48 | 1011.0 |
| 20260502030903 | 11 | 99 | 12.9 | 14.5 | 0.00 | 0.00 | 0.00 | 48 | 1011.0 |
| 20260502030803 | 11 | 98 | 11.3 | 14.5 | 0.00 | 0.00 | 0.00 | 48 | 1011.0 |
| 20260502030604 | 11 | 100 | 11.3 | 14.5 | 0.00 | 0.00 | 0.00 | 48 | 1011.0 |
| 20260502030404 | 11 | 99 | 11.3 | 14.5 | 0.00 | 0.00 | 0.00 | 48 | 1011.0 |
| 20260502030303 | 11 | 100 | 11.3 | 14.5 | 0.00 | 0.00 | 0.00 | 48 | 1011.0 |
| 20260502030203 | 12 | 98 | 11.3 | 14.5 | 0.00 | 0.00 | 0.00 | 47 | 1011.0 |
| 20260502030004 | 12 | 97 | 11.3 | 14.5 | 0.00 | 0.00 | 0.00 | 47 | 1011.0 |
| 20260502025903 | 12 | 97 | 11.3 | 14.5 | 0.00 | 0.00 | 0.00 | 47 | 1011.0 |
| 20260502025804 | 12 | 98 | 11.3 | 14.5 | 0.00 | 0.00 | 0.00 | 47 | 1011.0 |
| 20260502025704 | 12 | 98 | 12.9 | 14.5 | 0.00 | 0.00 | 0.00 | 46 | 1011.0 |
| 20260502025603 | 12 | 98 | 12.9 | 14.5 | 0.00 | 0.00 | 0.00 | 46 | 1011.0 |
| 20260502025504 | 12 | 99 | 9.7 | 12.9 | 0.00 | 0.00 | 0.00 | 46 | 1011.0 |
| 20260502025403 | 12 | 100 | 11.3 | 12.9 | 0.00 | 0.00 | 0.00 | 46 | 1011.0 |
| 20260502025306 | 12 | 98 | 12.9 | 12.9 | 0.00 | 0.00 | 0.00 | 45 | 1011.0 |
| 20260502025203 | 12 | 100 | 12.9 | 12.9 | 0.00 | 0.00 | 0.00 | 45 | 1011.0 |
| 20260502025103 | 12 | 103 | 12.9 | 12.9 | 0.00 | 0.00 | 0.00 | 45 | 1011.0 |
| 20260502025004 | 12 | 106 | 9.7 | 12.9 | 0.00 | 0.00 | 0.00 | 45 | 1011.0 |
| 20260502024903 | 12 | 108 | 9.7 | 12.9 | 0.00 | 0.00 | 0.00 | 45 | 1011.0 |
| 20260502024703 | 12 | 110 | 9.7 | 12.9 | 0.00 | 0.00 | 0.00 | 45 | 1011.0 |
| 20260502024504 | 12 | 113 | 9.7 | 12.9 | 0.00 | 0.00 | 0.00 | 45 | 1011.0 |
| 20260502024403 | 12 | 113 | 9.7 | 12.9 | 0.00 | 0.00 | 0.00 | 45 | 1011.0 |
| 20260502024203 | 12 | 115 | 9.7 | 12.9 | 0.00 | 0.00 | 0.00 | 45 | 1011.0 |
| 20260502024103 | 12 | 115 | 9.7 | 12.9 | 0.00 | 0.00 | 0.00 | 45 | 1011.0 |
| 20260502023903 | 13 | 115 | 11.3 | 12.9 | 0.00 | 0.00 | 0.00 | 45 | 1011.0 |
| 20260502023803 | 13 | 114 | 9.7 | 12.9 | 0.00 | 0.00 | 0.00 | 45 | 1011.0 |
| 20260502023703 | 13 | 112 | 9.7 | 11.3 | 0.00 | 0.00 | 0.00 | 45 | 1011.0 |
| 20260502023603 | 13 | 110 | 9.7 | 11.3 | 0.00 | 0.00 | 0.00 | 45 | 1011.0 |
| 20260502023503 | 13 | 110 | 9.7 | 11.3 | 0.00 | 0.00 | 0.00 | 44 | 1011.0 |
| 20260502023403 | 13 | 110 | 9.7 | 11.3 | 0.00 | 0.00 | 0.00 | 44 | 1011.0 |
| 20260502023304 | 13 | 110 | 9.7 | 11.3 | 0.00 | 0.00 | 0.00 | 44 | 1011.0 |
| 20260502023204 | 13 | 111 | 9.7 | 12.9 | 0.00 | 0.00 | 0.00 | 44 | 1011.0 |
| 20260502023103 | 13 | 111 | 9.7 | 12.9 | 0.00 | 0.00 | 0.00 | 44 | 1011.0 |
| 20260502023004 | 13 | 111 | 9.7 | 12.9 | 0.00 | 0.00 | 0.00 | 42 | 1011.0 |
| 20260502022904 | 13 | 111 | 9.7 | 12.9 | 0.00 | 0.00 | 0.00 | 42 | 1011.0 |
| 20260502022803 | 13 | 112 | 8.0 | 12.9 | 0.00 | 0.00 | 0.00 | 42 | 1011.0 |
| 20260502022703 | 13 | 114 | 8.0 | 12.9 | 0.00 | 0.00 | 0.00 | 42 | 1011.0 |
| 20260502022604 | 13 | 114 | 8.0 | 12.9 | 0.00 | 0.00 | 0.00 | 42 | 1011.0 |
| 20260502022504 | 13 | 114 | 8.0 | 12.9 | 0.00 | 0.00 | 0.00 | 42 | 1011.0 |
| 20260502022306 | 13 | 113 | 9.7 | 12.9 | 0.00 | 0.00 | 0.00 | 41 | 1011.0 |
| 20260502022203 | 13 | 112 | 9.7 | 12.9 | 0.00 | 0.00 | 0.00 | 41 | 1011.0 |
| 20260502022004 | 14 | 113 | 8.0 | 12.9 | 0.00 | 0.00 | 0.00 | 41 | 1011.0 |
| 20260502021903 | 14 | 113 | 9.7 | 12.9 | 0.00 | 0.00 | 0.00 | 41 | 1011.0 |
| 20260502021803 | 14 | 113 | 9.7 | 12.9 | 0.00 | 0.00 | 0.00 | 41 | 1011.0 |
| 20260502021703 | 14 | 113 | 9.7 | 12.9 | 0.00 | 0.00 | 0.00 | 41 | 1011.0 |
| 20260502021603 | 14 | 114 | 9.7 | 12.9 | 0.00 | 0.00 | 0.00 | 41 | 1011.0 |
| 20260502021504 | 14 | 114 | 9.7 | 12.9 | 0.00 | 0.00 | 0.00 | 41 | 1011.0 |
| 20260502021303 | 15 | 114 | 9.7 | 11.3 | 0.00 | 0.00 | 0.00 | 41 | 1011.0 |
| 20260502021203 | 15 | 114 | 9.7 | 11.3 | 0.00 | 0.00 | 0.00 | 41 | 1011.0 |
| 20260502021103 | 15 | 113 | 9.7 | 11.3 | 0.00 | 0.00 | 0.00 | 41 | 1011.0 |
| 20260502021004 | 15 | 113 | 9.7 | 11.3 | 0.00 | 0.00 | 0.00 | 40 | 1011.0 |
| 20260502020903 | 15 | 112 | 9.7 | 11.3 | 0.00 | 0.00 | 0.00 | 39 | 1011.0 |
| 20260502020803 | 15 | 112 | 9.7 | 11.3 | 0.00 | 0.00 | 0.00 | 39 | 1011.0 |
| 20260502020703 | 15 | 112 | 8.0 | 11.3 | 0.00 | 0.00 | 0.00 | 40 | 1011.0 |
| 20260502020604 | 15 | 111 | 9.7 | 11.3 | 0.00 | 0.00 | 0.00 | 40 | 1011.0 |
| 20260502020504 | 15 | 111 | 9.7 | 11.3 | 0.00 | 0.00 | 0.00 | 40 | 1011.0 |
| 20260502020303 | 15 | 110 | 9.7 | 12.9 | 0.00 | 0.00 | 0.00 | 39 | 1011.0 |
| 20260502020203 | 15 | 110 | 9.7 | 12.9 | 0.00 | 0.00 | 0.00 | 39 | 1011.0 |
| 20260502020103 | 16 | 110 | 9.7 | 12.9 | 0.00 | 0.00 | 0.00 | 39 | 1011.0 |
| 20260502020004 | 16 | 111 | 9.7 | 12.9 | 0.00 | 0.00 | 0.00 | 39 | 1011.0 |
| 20260502015903 | 16 | 110 | 9.7 | 12.9 | 0.00 | 0.00 | 0.00 | 39 | 1011.0 |
| 20260502015803 | 16 | 110 | 9.7 | 12.9 | 0.00 | 0.00 | 0.00 | 39 | 1011.0 |
| 20260502015703 | 16 | 110 | 11.3 | 12.9 | 0.00 | 0.00 | 0.00 | 39 | 1011.0 |
| 20260502015603 | 16 | 110 | 9.7 | 12.9 | 0.00 | 0.00 | 0.00 | 39 | 1011.0 |
| 20260502015503 | 16 | 111 | 9.7 | 12.9 | 0.00 | 0.00 | 0.00 | 39 | 1011.0 |
| 20260502015403 | 16 | 113 | 9.7 | 11.3 | 0.00 | 0.00 | 0.00 | 39 | 1011.0 |
| 20260502015305 | 16 | 113 | 9.7 | 11.3 | 0.00 | 0.00 | 0.00 | 39 | 1011.0 |
| 20260502015204 | 16 | 113 | 8.0 | 11.3 | 0.00 | 0.00 | 0.00 | 39 | 1011.0 |
| 20260502015103 | 16 | 113 | 8.0 | 11.3 | 0.00 | 0.00 | 0.00 | 39 | 1011.0 |
| 20260502015004 | 16 | 113 | 9.7 | 11.3 | 0.00 | 0.00 | 0.00 | 38 | 1011.0 |
| 20260502014803 | 17 | 113 | 9.7 | 11.3 | 0.00 | 0.00 | 0.00 | 38 | 1011.0 |
| 20260502014704 | 17 | 113 | 9.7 | 11.3 | 0.00 | 0.00 | 0.00 | 38 | 1011.0 |
| 20260502014604 | 17 | 114 | 9.7 | 11.3 | 0.00 | 0.00 | 0.00 | 38 | 1011.0 |
| 20260502014503 | 17 | 115 | 8.0 | 11.3 | 0.00 | 0.00 | 0.00 | 38 | 1011.0 |
| 20260502014404 | 17 | 115 | 8.0 | 12.9 | 0.00 | 0.00 | 0.00 | 38 | 1011.0 |
| 20260502014304 | 17 | 115 | 9.7 | 12.9 | 0.00 | 0.00 | 0.00 | 38 | 1011.0 |
| 20260502014203 | 17 | 117 | 9.7 | 12.9 | 0.00 | 0.00 | 0.00 | 38 | 1011.0 |
| 20260502014103 | 17 | 115 | 9.7 | 12.9 | 0.00 | 0.00 | 0.00 | 38 | 1011.0 |
| 20260502013803 | 17 | 114 | 9.7 | 12.9 | 0.00 | 0.00 | 0.00 | 37 | 1011.0 |
| 20260502013703 | 17 | 114 | 9.7 | 12.9 | 0.00 | 0.00 | 0.00 | 37 | 1011.0 |
| 20260502013604 | 18 | 114 | 9.7 | 12.9 | 0.00 | 0.00 | 0.00 | 37 | 1011.0 |
| 20260502013504 | 18 | 113 | 11.3 | 12.9 | 0.00 | 0.00 | 0.00 | 37 | 1011.0 |
| 20260502013404 | 18 | 113 | 9.7 | 12.9 | 0.00 | 0.00 | 0.00 | 37 | 1011.0 |
| 20260502013304 | 18 | 113 | 9.7 | 12.9 | 0.00 | 0.00 | 0.00 | 37 | 1011.0 |
| 20260502013103 | 18 | 110 | 8.0 | 9.7 | 0.00 | 0.00 | 0.00 | 37 | 1011.0 |
| 20260502013004 | 18 | 111 | 8.0 | 8.0 | 0.00 | 0.00 | 0.00 | 36 | 1011.0 |
| 20260502012803 | 18 | 114 | 6.4 | 8.0 | 0.00 | 0.00 | 0.00 | 36 | 1011.0 |
| 20260502012504 | 19 | 0 | 0.0 | 0.0 | 0.00 | 0.00 | 0.00 | 36 | 1011.0 |
| 20260502012403 | 19 | 0 | 0.0 | 0.0 | 0.00 | 0.00 | 0.00 | 36 | 1011.0 |
| 20260502012306 | 19 | 0 | 0.0 | 0.0 | 0.00 | 0.00 | 0.00 | 36 | 1011.0 |
| 20260502011803 | 20 | 0 | 0.0 | 0.0 | 0.00 | 0.00 | 0.00 | 34 | 1011.0 |
| 20260502011703 | 20 | 0 | 0.0 | 0.0 | 0.00 | 0.00 | 0.00 | 33 | 1011.0 |
| 20260502011603 | 20 | 0 | 0.0 | 0.0 | 0.00 | 0.00 | 0.00 | 33 | 1011.0 |
| 20260502011203 | 20 | 118 | 0.0 | 9.7 | 0.00 | 0.00 | 0.00 | 34 | 1011.0 |
| 20260502011103 | 20 | 119 | 0.0 | 9.7 | 0.00 | 0.00 | 0.00 | 34 | 1011.0 |
| 20260502011004 | 20 | 121 | 0.0 | 9.7 | 0.00 | 0.00 | 0.00 | 34 | 1012.1 |
| 20260502010903 | 20 | 123 | 0.0 | 9.7 | 0.00 | 0.00 | 0.00 | 34 | 1012.1 |
| 20260502010803 | 20 | 123 | 0.0 | 9.7 | 0.00 | 0.00 | 0.00 | 34 | 1012.1 |
| 20260502010703 | 21 | 124 | 0.0 | 9.7 | 0.00 | 0.00 | 0.00 | 33 | 1012.1 |
| 20260502010603 | 21 | 128 | 0.0 | 9.7 | 0.00 | 0.00 | 0.00 | 34 | 1012.1 |
| 20260502010503 | 21 | 128 | 4.8 | 9.7 | 0.00 | 0.00 | 0.00 | 33 | 1012.1 |
| 20260502010403 | 21 | 125 | 6.4 | 9.7 | 0.00 | 0.00 | 0.00 | 33 | 1012.1 |
| 20260502010304 | 21 | 125 | 8.0 | 9.7 | 0.00 | 0.00 | 0.00 | 33 | 1012.1 |
| 20260502010204 | 21 | 129 | 3.2 | 8.0 | 0.00 | 0.00 | 0.00 | 33 | 1012.1 |
| 20260502010004 | 21 | 127 | 4.8 | 8.0 | 0.00 | 0.00 | 0.00 | 33 | 1012.1 |
| 20260502005803 | 21 | 119 | 1.6 | 8.0 | 0.00 | 0.00 | 0.00 | 33 | 1012.1 |
| 20260502005703 | 21 | 114 | 6.4 | 8.0 | 0.00 | 0.00 | 0.00 | 33 | 1012.1 |
| 20260502005603 | 21 | 107 | 6.4 | 8.0 | 0.00 | 0.00 | 0.00 | 33 | 1012.1 |
| 20260502005503 | 21 | 104 | 6.4 | 8.0 | 0.00 | 0.00 | 0.00 | 33 | 1011.0 |
| 20260502005403 | 22 | 100 | 0.0 | 6.4 | 0.00 | 0.00 | 0.00 | 33 | 1011.0 |
| 20260502005306 | 22 | 100 | 0.0 | 6.4 | 0.00 | 0.00 | 0.00 | 33 | 1011.0 |
| 20260502005003 | 22 | 100 | 0.0 | 6.4 | 0.00 | 0.00 | 0.00 | 33 | 1011.0 |
| 20260502004903 | 22 | 101 | 4.8 | 6.4 | 0.00 | 0.00 | 0.00 | 33 | 1011.0 |
| 20260502004803 | 22 | 103 | 6.4 | 6.4 | 0.00 | 0.00 | 0.00 | 33 | 1011.0 |
| 20260502004504 | 22 | 96 | 1.6 | 6.4 | 0.00 | 0.00 | 0.00 | 33 | 1011.0 |
| 20260502004403 | 22 | 0 | 0.0 | 0.0 | 0.00 | 0.00 | 0.00 | 33 | 1011.0 |
| 20260502004303 | 22 | 0 | 0.0 | 0.0 | 0.00 | 0.00 | 0.00 | 32 | 1011.0 |
| 20260502004104 | 22 | 135 | 0.0 | 8.0 | 0.00 | 0.00 | 0.00 | 32 | 1011.0 |
| 20260502004004 | 22 | 127 | 0.0 | 9.7 | 0.00 | 0.00 | 0.00 | 32 | 1012.1 |
| 20260502003803 | 22 | 127 | 0.0 | 9.7 | 0.00 | 0.00 | 0.00 | 31 | 1012.1 |
| 20260502003703 | 22 | 127 | 0.0 | 9.7 | 0.00 | 0.00 | 0.00 | 32 | 1012.1 |
| 20260502003603 | 22 | 127 | 0.0 | 9.7 | 0.00 | 0.00 | 0.00 | 32 | 1012.1 |
| 20260502003503 | 22 | 127 | 0.0 | 9.7 | 0.00 | 0.00 | 0.00 | 32 | 1012.1 |
| 20260502003404 | 23 | 127 | 0.0 | 9.7 | 0.00 | 0.00 | 0.00 | 32 | 1012.1 |
| 20260502003303 | 23 | 127 | 0.0 | 9.7 | 0.00 | 0.00 | 0.00 | 32 | 1012.1 |
| 20260502003203 | 23 | 127 | 4.8 | 9.7 | 0.00 | 0.00 | 0.00 | 32 | 1012.1 |
| 20260502003103 | 23 | 121 | 6.4 | 9.7 | 0.00 | 0.00 | 0.00 | 32 | 1012.1 |
| 20260502002803 | 23 | 0 | 0.0 | 0.0 | 0.00 | 0.00 | 0.00 | 31 | 1012.1 |
| 20260502002703 | 23 | 0 | 0.0 | 0.0 | 0.00 | 0.00 | 0.00 | 31 | 1012.1 |
| 20260502002503 | 23 | 0 | 0.0 | 0.0 | 0.00 | 0.00 | 0.00 | 32 | 1012.1 |
| 20260502002403 | 23 | 0 | 0.0 | 0.0 | 0.00 | 0.00 | 0.00 | 32 | 1012.1 |
| 20260502002305 | 23 | 0 | 0.0 | 0.0 | 0.00 | 0.00 | 0.00 | 32 | 1012.1 |
| 20260502002203 | 23 | 0 | 0.0 | 0.0 | 0.00 | 0.00 | 0.00 | 31 | 1012.1 |
| 20260502002103 | 23 | 0 | 0.0 | 0.0 | 0.00 | 0.00 | 0.00 | 31 | 1012.1 |
| 20260502002004 | 23 | 139 | 0.0 | 4.8 | 0.00 | 0.00 | 0.00 | 31 | 1012.1 |
| 20260502001903 | 23 | 307 | 0.0 | 8.0 | 0.00 | 0.00 | 0.00 | 31 | 1012.1 |
| 20260502001703 | 23 | 307 | 0.0 | 8.0 | 0.00 | 0.00 | 0.00 | 31 | 1012.1 |
| 20260502001603 | 23 | 307 | 0.0 | 8.0 | 0.00 | 0.00 | 0.00 | 31 | 1012.1 |
| 20260502001503 | 23 | 307 | 0.0 | 8.0 | 0.00 | 0.00 | 0.00 | 31 | 1012.1 |
| 20260502001403 | 23 | 307 | 0.0 | 8.0 | 0.00 | 0.00 | 0.00 | 30 | 1012.1 |
| 20260502001303 | 23 | 4 | 0.0 | 8.0 | 0.00 | 0.00 | 0.00 | 31 | 1012.1 |
| 20260502001204 | 23 | 8 | 0.0 | 8.0 | 0.00 | 0.00 | 0.00 | 31 | 1012.1 |
| 20260502001004 | 23 | 3 | 3.2 | 8.0 | 0.00 | 0.00 | 0.00 | 30 | 1012.1 |
| 20260502000904 | 23 | 24 | 0.0 | 6.4 | 0.00 | 0.00 | 0.00 | 31 | 1012.1 |
| 20260502000803 | 23 | 24 | 0.0 | 6.4 | 0.00 | 0.00 | 0.00 | 31 | 1012.1 |
| 20260502000703 | 23 | 21 | 0.0 | 6.4 | 0.00 | 0.00 | 0.00 | 31 | 1012.1 |
| 20260502000603 | 23 | 5 | 0.0 | 8.0 | 0.00 | 0.00 | 0.00 | 30 | 1012.1 |
| 20260502000504 | 22 | 8 | 0.0 | 8.0 | 0.00 | 0.00 | 0.00 | 30 | 1012.1 |
| 20260502000403 | 22 | 8 | 3.2 | 8.0 | 0.00 | 0.00 | 0.00 | 30 | 1012.1 |
| 20260502000303 | 22 | 355 | 1.6 | 8.0 | 0.00 | 0.00 | 0.00 | 31 | 1012.1 |
| 20260502000204 | 22 | 347 | 1.6 | 8.0 | 0.00 | 0.00 | 0.00 | 30 | 1012.1 |
| 20260502000004 | 22 | 346 | 0.0 | 8.0 | 0.00 | 0.00 | 0.00 | 31 | 1012.1 |
| 20260501235903 | 22 | 346 | 0.0 | 8.0 | 0.00 | 0.00 | 0.00 | 32 | 1012.1 |
| 20260501235803 | 22 | 323 | 3.2 | 8.0 | 0.00 | 0.00 | 0.00 | 31 | 1012.1 |
| 20260501235703 | 22 | 282 | 3.2 | 8.0 | 0.00 | 0.00 | 0.00 | 30 | 1012.1 |
| 20260501235604 | 22 | 225 | 0.0 | 6.4 | 0.00 | 0.00 | 0.00 | 31 | 1012.1 |
| 20260501235503 | 22 | 225 | 0.0 | 6.4 | 0.00 | 0.00 | 0.00 | 31 | 1012.1 |
| 20260501235403 | 22 | 225 | 0.0 | 6.4 | 0.00 | 0.00 | 0.00 | 31 | 1012.1 |
| 20260501235103 | 23 | 226 | 0.0 | 11.3 | 0.00 | 0.00 | 0.00 | 31 | 1012.1 |
| 20260501235004 | 22 | 227 | 0.0 | 11.3 | 0.00 | 0.00 | 0.00 | 32 | 1012.1 |
| 20260501234903 | 22 | 235 | 1.6 | 11.3 | 0.00 | 0.00 | 0.00 | 32 | 1012.1 |
| 20260501234803 | 22 | 244 | 1.6 | 11.3 | 0.00 | 0.00 | 0.00 | 32 | 1012.1 |
| 20260501234603 | 22 | 245 | 0.0 | 11.3 | 0.00 | 0.00 | 0.00 | 32 | 1012.1 |
| 20260501234403 | 22 | 246 | 4.8 | 12.9 | 0.00 | 0.00 | 0.00 | 31 | 1012.1 |
| 20260501234303 | 23 | 253 | 9.7 | 12.9 | 0.00 | 0.00 | 0.00 | 31 | 1012.1 |
| 20260501234203 | 22 | 262 | 0.0 | 12.9 | 0.00 | 0.00 | 0.00 | 31 | 1012.1 |
| 20260501234103 | 22 | 269 | 3.2 | 12.9 | 0.00 | 0.00 | 0.00 | 32 | 1012.1 |
| 20260501234004 | 22 | 272 | 6.4 | 12.9 | 0.00 | 0.00 | 0.00 | 32 | 1012.1 |
| 20260501233903 | 22 | 277 | 6.4 | 12.9 | 0.00 | 0.00 | 0.00 | 30 | 1012.1 |
| 20260501233804 | 22 | 278 | 8.0 | 12.9 | 0.00 | 0.00 | 0.00 | 30 | 1012.1 |
| 20260501233503 | 22 | 296 | 6.4 | 12.9 | 0.00 | 0.00 | 0.00 | 30 | 1012.1 |
| 20260501233403 | 22 | 298 | 3.2 | 11.3 | 0.00 | 0.00 | 0.00 | 31 | 1012.1 |
| 20260501233303 | 22 | 297 | 6.4 | 11.3 | 0.00 | 0.00 | 0.00 | 31 | 1012.1 |
| 20260501233203 | 23 | 289 | 3.2 | 11.3 | 0.00 | 0.00 | 0.00 | 30 | 1012.1 |
| 20260501233104 | 23 | 286 | 4.8 | 11.3 | 0.00 | 0.00 | 0.00 | 31 | 1012.1 |
| 20260501233004 | 23 | 282 | 6.4 | 11.3 | 0.00 | 0.00 | 0.00 | 31 | 1012.1 |
| 20260501232703 | 23 | 271 | 6.4 | 8.0 | 0.00 | 0.00 | 0.00 | 32 | 1012.1 |
| 20260501232603 | 23 | 272 | 6.4 | 8.0 | 0.00 | 0.00 | 0.00 | 32 | 1012.1 |
| 20260501232503 | 23 | 272 | 1.6 | 8.0 | 0.00 | 0.00 | 0.00 | 32 | 1012.1 |
| 20260501232403 | 23 | 276 | 4.8 | 8.0 | 0.00 | 0.00 | 0.00 | 32 | 1012.1 |
| 20260501232306 | 23 | 278 | 4.8 | 8.0 | 0.00 | 0.00 | 0.00 | 32 | 1012.1 |
| 20260501232004 | 23 | 272 | 0.0 | 9.7 | 0.00 | 0.00 | 0.00 | 32 | 1012.1 |
| 20260501231904 | 23 | 268 | 3.2 | 9.7 | 0.00 | 0.00 | 0.00 | 32 | 1012.1 |
| 20260501231803 | 23 | 264 | 4.8 | 9.7 | 0.00 | 0.00 | 0.00 | 32 | 1012.1 |
| 20260501231703 | 23 | 265 | 4.8 | 9.7 | 0.00 | 0.00 | 0.00 | 32 | 1012.1 |
| 20260501231504 | 23 | 263 | 3.2 | 9.7 | 0.00 | 0.00 | 0.00 | 32 | 1012.1 |
| 20260501231403 | 23 | 259 | 1.6 | 9.7 | 0.00 | 0.00 | 0.00 | 32 | 1012.1 |
| 20260501231303 | 23 | 257 | 0.0 | 9.7 | 0.00 | 0.00 | 0.00 | 32 | 1012.1 |
| 20260501231203 | 23 | 257 | 4.8 | 9.7 | 0.00 | 0.00 | 0.00 | 32 | 1012.1 |
| 20260501231103 | 23 | 272 | 3.2 | 9.7 | 0.00 | 0.00 | 0.00 | 32 | 1012.1 |
| 20260501231003 | 23 | 287 | 4.8 | 6.4 | 0.00 | 0.00 | 0.00 | 32 | 1012.1 |
| 20260501230903 | 23 | 310 | 0.0 | 6.4 | 0.00 | 0.00 | 0.00 | 32 | 1012.1 |
| 20260501230803 | 23 | 313 | 0.0 | 6.4 | 0.00 | 0.00 | 0.00 | 31 | 1012.1 |
| 20260501230704 | 23 | 316 | 4.8 | 6.4 | 0.00 | 0.00 | 0.00 | 31 | 1012.1 |
| 20260501230604 | 23 | 319 | 3.2 | 6.4 | 0.00 | 0.00 | 0.00 | 32 | 1012.1 |
| 20260501230503 | 23 | 313 | 0.0 | 6.4 | 0.00 | 0.00 | 0.00 | 32 | 1012.1 |
| 20260501230403 | 23 | 321 | 0.0 | 6.4 | 0.00 | 0.00 | 0.00 | 32 | 1012.1 |
| 20260501230303 | 23 | 316 | 0.0 | 6.4 | 0.00 | 0.00 | 0.00 | 32 | 1012.1 |
| 20260501230204 | 23 | 316 | 3.2 | 6.4 | 0.00 | 0.00 | 0.00 | 32 | 1012.1 |
| 20260501230004 | 22 | 93 | 3.2 | 6.4 | 0.00 | 0.00 | 0.00 | 32 | 1012.1 |
| 20260501225704 | 23 | 103 | 1.6 | 14.5 | 0.00 | 0.00 | 0.00 | 33 | 1012.1 |
| 20260501225604 | 23 | 106 | 4.8 | 14.5 | 0.00 | 0.00 | 0.00 | 33 | 1012.1 |
| 20260501225306 | 23 | 96 | 0.0 | 14.5 | 0.00 | 0.00 | 0.00 | 33 | 1012.1 |
| 20260501225204 | 23 | 93 | 0.0 | 14.5 | 0.00 | 0.00 | 0.00 | 33 | 1012.1 |
| 20260501225103 | 23 | 93 | 4.8 | 14.5 | 0.00 | 0.00 | 0.00 | 33 | 1012.1 |
| 20260501225004 | 23 | 90 | 6.4 | 14.5 | 0.00 | 0.00 | 0.00 | 33 | 1012.1 |
| 20260501224703 | 23 | 96 | 4.8 | 12.9 | 0.00 | 0.00 | 0.00 | 33 | 1012.1 |
| 20260501224603 | 23 | 95 | 0.0 | 12.9 | 0.00 | 0.00 | 0.00 | 33 | 1012.1 |
| 20260501224503 | 23 | 98 | 6.4 | 12.9 | 0.00 | 0.00 | 0.00 | 34 | 1012.1 |
| 20260501224404 | 23 | 95 | 4.8 | 12.9 | 0.00 | 0.00 | 0.00 | 33 | 1012.1 |
| 20260501224203 | 23 | 92 | 0.0 | 12.9 | 0.00 | 0.00 | 0.00 | 33 | 1012.1 |
| 20260501224104 | 23 | 102 | 0.0 | 12.9 | 0.00 | 0.00 | 0.00 | 34 | 1012.1 |
| 20260501224004 | 23 | 104 | 0.0 | 12.9 | 0.00 | 0.00 | 0.00 | 33 | 1012.1 |
| 20260501223904 | 23 | 100 | 0.0 | 12.9 | 0.00 | 0.00 | 0.00 | 33 | 1012.1 |
| 20260501223703 | 23 | 95 | 4.8 | 11.3 | 0.00 | 0.00 | 0.00 | 33 | 1012.1 |
| 20260501223603 | 23 | 94 | 0.0 | 12.9 | 0.00 | 0.00 | 0.00 | 33 | 1012.1 |
| 20260501223503 | 23 | 95 | 1.6 | 12.9 | 0.00 | 0.00 | 0.00 | 33 | 1012.1 |
| 20260501223404 | 23 | 102 | 3.2 | 17.7 | 0.00 | 0.00 | 0.00 | 33 | 1012.1 |
| 20260501223303 | 23 | 104 | 4.8 | 17.7 | 0.00 | 0.00 | 0.00 | 33 | 1012.1 |
| 20260501223203 | 23 | 107 | 4.8 | 17.7 | 0.00 | 0.00 | 0.00 | 34 | 1012.1 |
| 20260501223103 | 23 | 105 | 6.4 | 17.7 | 0.00 | 0.00 | 0.00 | 34 | 1012.1 |
| 20260501223004 | 23 | 103 | 6.4 | 17.7 | 0.00 | 0.00 | 0.00 | 34 | 1012.1 |
| 20260501222903 | 23 | 106 | 4.8 | 17.7 | 0.00 | 0.00 | 0.00 | 34 | 1012.1 |
| 20260501222803 | 23 | 109 | 6.4 | 17.7 | 0.00 | 0.00 | 0.00 | 34 | 1012.1 |
| 20260501222703 | 23 | 115 | 9.7 | 17.7 | 0.00 | 0.00 | 0.00 | 34 | 1012.1 |
| 20260501222603 | 23 | 119 | 6.4 | 17.7 | 0.00 | 0.00 | 0.00 | 34 | 1012.1 |
| 20260501222503 | 23 | 122 | 12.9 | 17.7 | 0.00 | 0.00 | 0.00 | 34 | 1012.1 |
| 20260501222203 | 22 | 229 | 0.0 | 8.0 | 0.00 | 0.00 | 0.00 | 34 | 1012.1 |
| 20260501222103 | 22 | 253 | 0.0 | 9.7 | 0.00 | 0.00 | 0.00 | 36 | 1012.1 |
| 20260501222004 | 22 | 274 | 1.6 | 9.7 | 0.00 | 0.00 | 0.00 | 36 | 1012.1 |
| 20260501221803 | 22 | 281 | 1.6 | 9.7 | 0.00 | 0.00 | 0.00 | 34 | 1012.1 |
| 20260501221703 | 22 | 294 | 0.0 | 9.7 | 0.00 | 0.00 | 0.00 | 34 | 1012.1 |
| 20260501221603 | 22 | 307 | 0.0 | 9.7 | 0.00 | 0.00 | 0.00 | 34 | 1012.1 |
| 20260501221503 | 22 | 302 | 0.0 | 9.7 | 0.00 | 0.00 | 0.00 | 33 | 1012.1 |
| 20260501221403 | 22 | 306 | 4.8 | 9.7 | 0.00 | 0.00 | 0.00 | 34 | 1012.1 |
| 20260501221303 | 22 | 330 | 6.4 | 9.7 | 0.00 | 0.00 | 0.00 | 34 | 1012.1 |
| 20260501221203 | 22 | 15 | 6.4 | 9.7 | 0.00 | 0.00 | 0.00 | 34 | 1012.1 |
| 20260501221103 | 22 | 44 | 6.4 | 9.7 | 0.00 | 0.00 | 0.00 | 34 | 1012.1 |
| 20260501221003 | 22 | 57 | 8.0 | 9.7 | 0.00 | 0.00 | 0.00 | 34 | 1012.1 |
| 20260501220903 | 22 | 53 | 1.6 | 9.7 | 0.00 | 0.00 | 0.00 | 36 | 1012.1 |
| 20260501220803 | 22 | 42 | 0.0 | 8.0 | 0.00 | 0.00 | 0.00 | 34 | 1012.1 |
| 20260501220604 | 22 | 72 | 6.4 | 8.0 | 0.00 | 0.00 | 0.00 | 33 | 1012.1 |
| 20260501220403 | 22 | 86 | 4.8 | 9.7 | 0.00 | 0.00 | 0.00 | 36 | 1012.1 |
| 20260501220303 | 22 | 70 | 6.4 | 11.3 | 0.00 | 0.00 | 0.00 | 36 | 1012.1 |
| 20260501215903 | 22 | 63 | 0.0 | 12.9 | 0.00 | 0.00 | 0.00 | 36 | 1012.1 |
| 20260501215803 | 22 | 65 | 4.8 | 12.9 | 0.00 | 0.00 | 0.00 | 36 | 1012.1 |
| 20260501215703 | 22 | 64 | 6.4 | 12.9 | 0.00 | 0.00 | 0.00 | 36 | 1012.1 |
| 20260501215604 | 22 | 47 | 4.8 | 12.9 | 0.00 | 0.00 | 0.00 | 36 | 1012.1 |
| 20260501215503 | 22 | 47 | 6.4 | 12.9 | 0.00 | 0.00 | 0.00 | 36 | 1012.1 |
| 20260501215104 | 22 | 189 | 0.0 | 6.4 | 0.00 | 0.00 | 0.00 | 37 | 1012.1 |
| 20260501215004 | 22 | 189 | 1.6 | 6.4 | 0.00 | 0.00 | 0.00 | 37 | 1012.1 |
| 20260501214903 | 22 | 171 | 1.6 | 9.7 | 0.00 | 0.00 | 0.00 | 37 | 1012.1 |
| 20260501214703 | 22 | 145 | 0.0 | 14.5 | 0.00 | 0.00 | 0.00 | 38 | 1012.1 |
| 20260501214603 | 22 | 142 | 1.6 | 14.5 | 0.00 | 0.00 | 0.00 | 38 | 1012.1 |
| 20260501214404 | 22 | 125 | 4.8 | 14.5 | 0.00 | 0.00 | 0.00 | 37 | 1012.1 |
| 20260501214304 | 22 | 121 | 4.8 | 14.5 | 0.00 | 0.00 | 0.00 | 37 | 1012.1 |
| 20260501214204 | 22 | 112 | 4.8 | 17.7 | 0.00 | 0.00 | 0.00 | 38 | 1012.1 |
| 20260501214104 | 22 | 108 | 1.6 | 17.7 | 0.00 | 0.00 | 0.00 | 38 | 1012.1 |
| 20260501214004 | 22 | 105 | 6.4 | 17.7 | 0.00 | 0.00 | 0.00 | 38 | 1011.0 |
| 20260501213903 | 22 | 100 | 8.0 | 17.7 | 0.00 | 0.00 | 0.00 | 37 | 1011.0 |
| 20260501213803 | 22 | 97 | 9.7 | 17.7 | 0.00 | 0.00 | 0.00 | 38 | 1011.0 |
| 20260501213704 | 22 | 97 | 9.7 | 17.7 | 0.00 | 0.00 | 0.00 | 37 | 1011.0 |
| 20260501213604 | 22 | 95 | 4.8 | 17.7 | 0.00 | 0.00 | 0.00 | 37 | 1011.0 |
| 20260501213504 | 22 | 94 | 6.4 | 17.7 | 0.00 | 0.00 | 0.00 | 38 | 1011.0 |
| 20260501213403 | 22 | 93 | 9.7 | 17.7 | 0.00 | 0.00 | 0.00 | 38 | 1011.0 |
| 20260501213303 | 22 | 93 | 14.5 | 17.7 | 0.00 | 0.00 | 0.00 | 38 | 1011.0 |
| 20260501213203 | 22 | 92 | 11.3 | 16.1 | 0.00 | 0.00 | 0.00 | 37 | 1011.0 |
| 20260501213103 | 22 | 90 | 8.0 | 12.9 | 0.00 | 0.00 | 0.00 | 37 | 1011.0 |
| 20260501213003 | 21 | 90 | 6.4 | 12.9 | 0.00 | 0.00 | 0.00 | 38 | 1011.0 |
| 20260501212903 | 21 | 90 | 9.7 | 12.9 | 0.00 | 0.00 | 0.00 | 38 | 1011.0 |
| 20260501212804 | 21 | 91 | 8.0 | 12.9 | 0.00 | 0.00 | 0.00 | 37 | 1011.0 |
| 20260501212603 | 21 | 81 | 6.4 | 12.9 | 0.00 | 0.00 | 0.00 | 37 | 1011.0 |
| 20260501212503 | 21 | 78 | 8.0 | 12.9 | 0.00 | 0.00 | 0.00 | 37 | 1011.0 |
| 20260501212403 | 21 | 75 | 4.8 | 12.9 | 0.00 | 0.00 | 0.00 | 37 | 1011.0 |
| 20260501212306 | 21 | 76 | 6.4 | 12.9 | 0.00 | 0.00 | 0.00 | 37 | 1011.0 |
| 20260501212203 | 21 | 71 | 9.7 | 12.9 | 0.00 | 0.00 | 0.00 | 37 | 1011.0 |
| 20260501212104 | 21 | 64 | 9.7 | 12.9 | 0.00 | 0.00 | 0.00 | 36 | 1011.0 |
| 20260501212004 | 21 | 54 | 8.0 | 9.7 | 0.00 | 0.00 | 0.00 | 36 | 1011.0 |
| 20260501211604 | 21 | 63 | 1.6 | 20.9 | 0.00 | 0.00 | 0.00 | 37 | 1011.0 |
| 20260501211504 | 21 | 63 | 6.4 | 20.9 | 0.00 | 0.00 | 0.00 | 37 | 1011.0 |
| 20260501211404 | 21 | 68 | 4.8 | 20.9 | 0.00 | 0.00 | 0.00 | 37 | 1011.0 |
| 20260501211303 | 20 | 70 | 6.4 | 20.9 | 0.00 | 0.00 | 0.00 | 37 | 1011.0 |
| 20260501211203 | 21 | 74 | 8.0 | 20.9 | 0.00 | 0.00 | 0.00 | 36 | 1011.0 |
| 20260501211103 | 21 | 79 | 6.4 | 20.9 | 0.00 | 0.00 | 0.00 | 37 | 1011.0 |
| 20260501211005 | 21 | 90 | 9.7 | 20.9 | 0.00 | 0.00 | 0.00 | 38 | 1012.1 |
| 20260501210903 | 21 | 93 | 11.3 | 20.9 | 0.00 | 0.00 | 0.00 | 38 | 1012.1 |
| 20260501210803 | 21 | 94 | 9.7 | 17.7 | 0.00 | 0.00 | 0.00 | 38 | 1012.1 |
| 20260501210703 | 21 | 99 | 3.2 | 16.1 | 0.00 | 0.00 | 0.00 | 37 | 1012.1 |
| 20260501210404 | 21 | 100 | 11.3 | 12.9 | 0.00 | 0.00 | 0.00 | 39 | 1012.1 |
| 20260501210304 | 21 | 105 | 8.0 | 12.9 | 0.00 | 0.00 | 0.00 | 39 | 1012.1 |
| 20260501210204 | 21 | 118 | 6.4 | 12.9 | 0.00 | 0.00 | 0.00 | 40 | 1012.1 |
| 20260501210104 | 20 | 144 | 8.0 | 12.9 | 0.00 | 0.00 | 0.00 | 39 | 1012.1 |
| 20260501210004 | 20 | 197 | 9.7 | 12.9 | 0.00 | 0.00 | 0.00 | 38 | 1012.1 |
| 20260501205903 | 20 | 268 | 3.2 | 12.9 | 0.00 | 0.00 | 0.00 | 38 | 1012.1 |
| 20260501205803 | 20 | 265 | 0.0 | 12.9 | 0.00 | 0.00 | 0.00 | 37 | 1012.1 |
| 20260501205603 | 20 | 278 | 3.2 | 14.5 | 0.00 | 0.00 | 0.00 | 37 | 1012.1 |
| 20260501205504 | 20 | 282 | 0.0 | 14.5 | 0.00 | 0.00 | 0.00 | 37 | 1012.1 |
| 20260501205404 | 20 | 285 | 4.8 | 14.5 | 0.00 | 0.00 | 0.00 | 37 | 1012.1 |
| 20260501205305 | 20 | 292 | 6.4 | 14.5 | 0.00 | 0.00 | 0.00 | 37 | 1012.1 |
| 20260501205203 | 20 | 298 | 9.7 | 14.5 | 0.00 | 0.00 | 0.00 | 37 | 1012.1 |
| 20260501205103 | 20 | 308 | 3.2 | 14.5 | 0.00 | 0.00 | 0.00 | 37 | 1012.1 |
| 20260501205005 | 20 | 312 | 6.4 | 14.5 | 0.00 | 0.00 | 0.00 | 37 | 1012.1 |
| 20260501204904 | 20 | 317 | 4.8 | 14.5 | 0.00 | 0.00 | 0.00 | 37 | 1012.1 |
| 20260501204804 | 20 | 318 | 9.7 | 14.5 | 0.00 | 0.00 | 0.00 | 37 | 1012.1 |
| 20260501204703 | 20 | 323 | 11.3 | 14.5 | 0.00 | 0.00 | 0.00 | 37 | 1012.1 |
| 20260501204503 | 20 | 332 | 8.0 | 9.7 | 0.00 | 0.00 | 0.00 | 37 | 1012.1 |
| 20260501204304 | 20 | 330 | 1.6 | 9.7 | 0.00 | 0.00 | 0.00 | 37 | 1012.1 |
| 20260501204204 | 20 | 334 | 3.2 | 9.7 | 0.00 | 0.00 | 0.00 | 37 | 1012.1 |
| 20260501204103 | 20 | 331 | 4.8 | 9.7 | 0.00 | 0.00 | 0.00 | 37 | 1012.1 |
| 20260501204004 | 20 | 332 | 4.8 | 9.7 | 0.00 | 0.00 | 0.00 | 37 | 1012.1 |
| 20260501203903 | 20 | 337 | 6.4 | 9.7 | 0.00 | 0.00 | 0.00 | 37 | 1012.1 |
| 20260501203803 | 20 | 357 | 4.8 | 9.7 | 0.00 | 0.00 | 0.00 | 38 | 1012.1 |
| 20260501203703 | 20 | 16 | 6.4 | 9.7 | 0.00 | 0.00 | 0.00 | 37 | 1012.1 |
| 20260501203604 | 20 | 23 | 8.0 | 9.7 | 0.00 | 0.00 | 0.00 | 37 | 1012.1 |
| 20260501203503 | 19 | 44 | 3.2 | 9.7 | 0.00 | 0.00 | 0.00 | 38 | 1012.1 |
| 20260501203303 | 20 | 66 | 8.0 | 9.7 | 0.00 | 0.00 | 0.00 | 39 | 1012.1 |
| 20260501203203 | 20 | 150 | 4.8 | 9.7 | 0.00 | 0.00 | 0.00 | 38 | 1012.1 |
| 20260501203103 | 20 | 142 | 1.6 | 9.7 | 0.00 | 0.00 | 0.00 | 39 | 1012.1 |
| 20260501203003 | 20 | 137 | 6.4 | 9.7 | 0.00 | 0.00 | 0.00 | 39 | 1012.1 |
| 20260501202903 | 19 | 142 | 6.4 | 9.7 | 0.00 | 0.00 | 0.00 | 39 | 1012.1 |
| 20260501202803 | 19 | 312 | 1.6 | 9.7 | 0.00 | 0.00 | 0.00 | 38 | 1012.1 |
| 20260501202703 | 19 | 334 | 0.0 | 8.0 | 0.00 | 0.00 | 0.00 | 38 | 1012.1 |
| 20260501202604 | 19 | 4 | 0.0 | 8.0 | 0.00 | 0.00 | 0.00 | 39 | 1012.1 |
| 20260501202503 | 19 | 12 | 0.0 | 8.0 | 0.00 | 0.00 | 0.00 | 39 | 1011.0 |
| 20260501202403 | 19 | 17 | 4.8 | 9.7 | 0.00 | 0.00 | 0.00 | 40 | 1011.0 |
| 20260501202306 | 19 | 23 | 4.8 | 9.7 | 0.00 | 0.00 | 0.00 | 40 | 1011.0 |
| 20260501202203 | 18 | 30 | 0.0 | 9.7 | 0.00 | 0.00 | 0.00 | 39 | 1011.0 |
| 20260501202104 | 18 | 30 | 1.6 | 9.7 | 0.00 | 0.00 | 0.00 | 38 | 1011.0 |
| 20260501202003 | 18 | 30 | 1.6 | 9.7 | 0.00 | 0.00 | 0.00 | 38 | 1011.0 |
| 20260501201903 | 18 | 31 | 4.8 | 9.7 | 0.00 | 0.00 | 0.00 | 38 | 1011.0 |
| 20260501201803 | 18 | 30 | 4.8 | 9.7 | 0.00 | 0.00 | 0.00 | 38 | 1011.0 |
| 20260501201704 | 18 | 29 | 6.4 | 9.7 | 0.00 | 0.00 | 0.00 | 38 | 1011.0 |
| 20260501201604 | 18 | 26 | 6.4 | 9.7 | 0.00 | 0.00 | 0.00 | 38 | 1011.0 |
| 20260501201403 | 18 | 16 | 6.4 | 9.7 | 0.00 | 0.00 | 0.00 | 39 | 1011.0 |
| 20260501201303 | 18 | 358 | 6.4 | 8.0 | 0.00 | 0.00 | 0.00 | 39 | 1011.0 |
| 20260501201203 | 18 | 302 | 4.8 | 12.9 | 0.00 | 0.00 | 0.00 | 39 | 1011.0 |
| 20260501201103 | 18 | 282 | 1.6 | 12.9 | 0.00 | 0.00 | 0.00 | 39 | 1011.0 |
| 20260501200804 | 18 | 275 | 1.6 | 12.9 | 0.00 | 0.00 | 0.00 | 39 | 1012.1 |
| 20260501200704 | 18 | 272 | 4.8 | 12.9 | 0.00 | 0.00 | 0.00 | 39 | 1012.1 |
| 20260501200603 | 18 | 273 | 3.2 | 12.9 | 0.00 | 0.00 | 0.00 | 39 | 1012.1 |
| 20260501200503 | 18 | 282 | 0.0 | 12.9 | 0.00 | 0.00 | 0.00 | 39 | 1012.1 |
| 20260501200403 | 18 | 285 | 6.4 | 12.9 | 0.00 | 0.00 | 0.00 | 39 | 1012.1 |
| 20260501200303 | 18 | 292 | 8.0 | 12.9 | 0.00 | 0.00 | 0.00 | 39 | 1012.1 |
| 20260501200004 | 18 | 327 | 4.8 | 11.3 | 0.00 | 0.00 | 0.00 | 39 | 1012.1 |
| 20260501195904 | 18 | 331 | 4.8 | 11.3 | 0.00 | 0.00 | 0.00 | 39 | 1012.1 |
| 20260501195803 | 18 | 345 | 0.0 | 8.0 | 0.00 | 0.00 | 0.00 | 39 | 1012.1 |
| 20260501195703 | 18 | 6 | 1.6 | 9.7 | 0.00 | 0.00 | 0.00 | 39 | 1012.1 |
| 20260501195603 | 18 | 16 | 4.8 | 9.7 | 0.00 | 0.00 | 0.00 | 39 | 1012.1 |
| 20260501195404 | 18 | 24 | 4.8 | 11.3 | 0.00 | 0.00 | 0.00 | 38 | 1012.1 |
| 20260501195306 | 18 | 27 | 0.0 | 11.3 | 0.00 | 0.00 | 0.00 | 39 | 1012.1 |
| 20260501195203 | 18 | 28 | 4.8 | 11.3 | 0.00 | 0.00 | 0.00 | 40 | 1012.1 |
| 20260501195103 | 18 | 24 | 1.6 | 11.3 | 0.00 | 0.00 | 0.00 | 40 | 1012.1 |
| 20260501195003 | 18 | 10 | 0.0 | 11.3 | 0.00 | 0.00 | 0.00 | 40 | 1012.1 |
| 20260501194903 | 18 | 4 | 3.2 | 11.3 | 0.00 | 0.00 | 0.00 | 39 | 1012.1 |
| 20260501194803 | 18 | 4 | 6.4 | 11.3 | 0.00 | 0.00 | 0.00 | 39 | 1012.1 |
| 20260501194703 | 18 | 4 | 6.4 | 11.3 | 0.00 | 0.00 | 0.00 | 39 | 1012.1 |
| 20260501194503 | 18 | 353 | 9.7 | 11.3 | 0.00 | 0.00 | 0.00 | 39 | 1012.1 |
| 20260501194403 | 18 | 6 | 0.0 | 9.7 | 0.00 | 0.00 | 0.00 | 40 | 1012.1 |
| 20260501194303 | 17 | 10 | 4.8 | 9.7 | 0.00 | 0.00 | 0.00 | 40 | 1012.1 |
| 20260501194204 | 17 | 10 | 1.6 | 9.7 | 0.00 | 0.00 | 0.00 | 40 | 1012.1 |
| 20260501194104 | 17 | 12 | 6.4 | 9.7 | 0.00 | 0.00 | 0.00 | 40 | 1012.1 |
| 20260501193804 | 17 | 41 | 6.4 | 9.7 | 0.00 | 0.00 | 0.00 | 40 | 1012.1 |
| 20260501193603 | 18 | 339 | 4.8 | 9.7 | 0.00 | 0.00 | 0.00 | 41 | 1012.1 |
| 20260501193503 | 17 | 321 | 6.4 | 9.7 | 0.00 | 0.00 | 0.00 | 41 | 1012.1 |
| 20260501193404 | 17 | 313 | 0.0 | 12.9 | 0.00 | 0.00 | 0.00 | 41 | 1012.1 |
| 20260501193303 | 17 | 311 | 0.0 | 12.9 | 0.00 | 0.00 | 0.00 | 41 | 1012.1 |
| 20260501193203 | 17 | 312 | 0.0 | 12.9 | 0.00 | 0.00 | 0.00 | 42 | 1012.1 |
| 20260501193103 | 17 | 310 | 0.0 | 12.9 | 0.00 | 0.00 | 0.00 | 42 | 1012.1 |
| 20260501193003 | 17 | 309 | 6.4 | 12.9 | 0.00 | 0.00 | 0.00 | 42 | 1012.1 |
| 20260501192803 | 17 | 320 | 4.8 | 12.9 | 0.00 | 0.00 | 0.00 | 42 | 1012.1 |
| 20260501192703 | 17 | 322 | 6.4 | 12.9 | 0.00 | 0.00 | 0.00 | 41 | 1012.1 |
| 20260501192603 | 17 | 326 | 6.4 | 12.9 | 0.00 | 0.00 | 0.00 | 41 | 1012.1 |
| 20260501192504 | 17 | 333 | 8.0 | 12.9 | 0.00 | 0.00 | 0.00 | 41 | 1012.1 |
| 20260501192403 | 17 | 339 | 8.0 | 12.9 | 0.00 | 0.00 | 0.00 | 40 | 1012.1 |
| 20260501192306 | 17 | 346 | 11.3 | 12.9 | 0.00 | 0.00 | 0.00 | 42 | 1012.1 |
| 20260501192103 | 17 | 75 | 1.6 | 11.3 | 0.00 | 0.00 | 0.00 | 42 | 1012.1 |
| 20260501192004 | 17 | 83 | 0.0 | 14.5 | 0.00 | 0.00 | 0.00 | 42 | 1012.1 |
| 20260501191903 | 17 | 79 | 6.4 | 14.5 | 0.00 | 0.00 | 0.00 | 41 | 1012.1 |
| 20260501191803 | 17 | 78 | 3.2 | 14.5 | 0.00 | 0.00 | 0.00 | 45 | 1012.1 |
| 20260501191703 | 17 | 80 | 4.8 | 14.5 | 0.00 | 0.00 | 0.00 | 46 | 1012.1 |
| 20260501191603 | 17 | 85 | 4.8 | 14.5 | 0.00 | 0.00 | 0.00 | 46 | 1012.1 |
| 20260501191504 | 17 | 84 | 3.2 | 14.5 | 0.00 | 0.00 | 0.00 | 45 | 1012.1 |
| 20260501191404 | 17 | 79 | 4.8 | 14.5 | 0.00 | 0.00 | 0.00 | 45 | 1012.1 |
| 20260501191304 | 17 | 79 | 9.7 | 14.5 | 0.00 | 0.00 | 0.00 | 46 | 1012.1 |
| 20260501191204 | 17 | 74 | 9.7 | 14.5 | 0.00 | 0.00 | 0.00 | 46 | 1012.1 |
| 20260501191104 | 17 | 68 | 11.3 | 14.5 | 0.00 | 0.00 | 0.00 | 45 | 1012.1 |
| 20260501191004 | 17 | 62 | 8.0 | 11.3 | 0.00 | 0.00 | 0.00 | 45 | 1012.1 |
| 20260501190903 | 17 | 64 | 4.8 | 11.3 | 0.00 | 0.00 | 0.00 | 45 | 1012.1 |
| 20260501190803 | 17 | 73 | 9.7 | 11.3 | 0.00 | 0.00 | 0.00 | 45 | 1012.1 |
| 20260501190704 | 17 | 73 | 4.8 | 11.3 | 0.00 | 0.00 | 0.00 | 45 | 1012.1 |